GEFSMW_500_meanwind_126.txt.gz
Wind_Speed
33 36 40 44 49 50 51 55 53 51 52 52 50 50 49 48 48 48 46 45 42 42 42 41 40 40 39 37 37 36 36 36 36 36 36 36 36 36 36 36 36 36 36
29 34 38 42 46 49 50 53 52 51 52 51 49 50 49 47 47 47 46 44 43 43 43 42 41 40 40 39 39 39 38 38 37 38 38 38 37 37 37 37 37 38 38
27 30 35 40 43 45 47 49 52 51 50 48 46 46 46 46 45 46 46 45 44 44 44 44 43 42 42 42 41 41 41 40 40 40 40 40 39 38 37 37 38 38 38
22 28 32 35 39 41 43 45 46 47 48 48 45 43 45 45 45 45 45 45 44 45 46 45 44 44 44 43 44 44 43 43 43 42 42 41 41 40 39 39 39 39 39
18 23 28 32 34 37 39 38 39 42 44 45 43 41 43 44 44 45 45 46 45 45 45 45 45 44 45 46 46 45 45 45 45 45 45 44 43 43 42 42 41 41 40
16 19 24 29 31 34 35 35 36 38 40 42 41 40 41 43 42 44 43 43 45 45 45 46 46 47 47 48 48 47 48 48 47 47 46 45 44 45 45 44 43 43 42
14 16 20 24 26 29 30 31 32 34 37 38 38 38 38 41 42 44 45 45 46 46 46 46 47 48 48 48 48 49 49 49 49 49 48 47 47 47 47 46 45 45 44
11 13 17 22 24 25 26 25 26 29 33 35 35 36 36 39 42 43 46 46 46 46 47 47 47 49 50 50 50 51 51 51 51 52 51 49 49 49 48 48 48 47 47
9 11 13 17 19 20 22 24 24 26 30 32 32 34 35 36 38 41 43 43 44 45 46 47 49 50 52 52 53 53 53 53 52 52 52 52 52 52 50 48 49 48 48
7 8 9 12 15 16 17 19 22 24 25 27 27 28 31 33 34 35 38 40 41 43 44 46 47 48 50 52 53 54 54 53 53 53 54 52 52 51 50 49 49 48 46
4 6 7 10 12 14 16 17 18 21 22 24 26 27 28 30 32 33 35 38 40 40 42 43 44 45 47 50 52 53 53 54 54 53 53 53 53 52 50 50 48 47 47
4 6 8 9 10 12 14 16 18 20 21 23 25 26 29 31 32 33 35 38 41 42 44 44 45 47 49 49 50 51 51 51 51 52 52 52 52 51 51 50 49 48 48
4 6 8 9 9 11 13 15 17 20 22 23 25 27 28 30 31 32 34 36 39 41 42 43 44 46 47 47 48 50 50 49 49 49 49 50 50 49 49 48 47 46 46
4 4 7 8 9 10 13 14 16 19 22 24 26 28 28 30 32 33 34 35 35 37 38 40 41 43 44 45 46 47 47 48 48 48 48 48 48 47 48 47 46 45 45
6 7 8 10 11 12 14 16 18 21 22 24 27 28 30 30 31 32 33 34 34 34 34 36 38 40 41 42 44 44 45 46 46 47 46 45 45 45 44 44 44 45 45
7 8 10 12 13 15 17 19 21 23 24 25 27 28 29 31 33 34 34 33 34 35 35 35 36 37 39 40 41 42 43 43 44 43 42 42 42 43 44 44 44 45 45
9 11 13 15 16 17 19 21 22 23 25 26 28 29 30 32 33 33 33 34 35 35 37 38 38 38 38 38 39 39 41 41 41 41 41 41 42 42 43 44 44 44 44
12 14 16 17 19 20 21 22 24 25 27 29 30 31 32 33 33 33 33 34 35 36 37 39 39 39 39 39 39 40 40 40 40 40 40 41 42 44 45 44 44 44 43
15 16 18 20 21 23 24 25 27 29 30 31 33 34 36 36 36 36 35 36 36 37 39 39 39 40 40 40 40 40 39 39 40 40 40 41 42 42 43 44 44 44 44
18 19 21 23 24 25 27 28 30 32 33 34 35 36 38 37 37 37 37 38 38 38 39 39 39 40 40 40 40 40 39 39 39 40 40 41 41 41 42 43 43 44 44
20 22 24 25 26 28 29 31 33 34 35 36 37 38 38 38 38 38 38 39 39 39 39 39 40 39 39 39 39 39 39 38 39 40 41 40 40 41 42 42 42 43 43
22 23 25 28 30 31 32 34 35 36 37 38 39 40 39 39 40 40 40 41 41 41 40 40 40 40 39 38 38 39 39 39 40 40 40 39 40 40 40 40 41 41 41
24 26 28 31 33 34 36 38 38 38 38 39 39 39 39 40 40 41 41 42 42 41 41 41 40 39 39 39 39 39 39 39 39 39 39 39 39 39 39 39 40 40 40
27 29 31 33 35 37 38 39 39 39 39 39 39 39 39 40 40 40 41 41 41 41 40 40 40 39 38 38 38 39 39 39 38 38 38 38 39 39 38 39 39 39 39
29 31 33 35 37 38 38 39 39 39 39 39 39 39 39 39 39 39 40 40 40 40 39 39 38 38 38 38 38 38 38 38 37 37 37 37 37 38 39 39 40 39 39
32 34 35 37 38 38 38 39 39 39 38 38 38 38 38 38 38 38 39 39 39 39 39 38 38 36 36 36 37 38 38 37 37 37 37 37 38 37 37 38 38 38 38

GEFSMW_500_meanwind_132.txt.gz
Wind_Speed
30 35 39 43 47 50 53 54 54 55 56 57 58 57 56 54 53 52 51 49 47 46 45 43 42 42 41 40 40 39 38 38 38 39 39 38 37 37 37 37 37 37 37
25 29 35 40 43 45 47 50 51 52 54 53 55 55 55 54 53 51 49 48 49 47 45 45 44 43 43 43 42 41 41 41 41 42 42 41 40 39 39 39 38 39 39
21 25 30 34 36 39 41 43 47 49 50 50 52 54 54 54 52 50 49 48 48 48 46 45 46 46 45 45 44 43 43 42 43 44 44 42 41 41 40 40 40 41 41
18 21 26 28 30 33 36 37 39 43 45 48 49 50 51 50 50 49 49 48 49 48 47 46 46 47 47 46 46 45 45 45 45 46 45 44 43 43 43 42 43 43 43
16 19 21 22 24 28 32 33 35 40 41 44 46 47 47 47 48 49 49 49 48 48 47 46 46 47 46 47 46 45 46 47 47 47 46 45 46 46 46 46 46 46 46
14 15 16 18 19 22 27 29 30 35 37 40 43 45 44 44 45 45 46 47 47 47 48 47 47 47 47 46 46 45 45 46 46 45 46 46 47 47 47 48 48 48 48
9 12 14 17 18 19 22 24 24 28 33 36 37 40 41 40 41 41 43 45 45 45 47 46 47 47 47 47 47 46 46 45 45 46 47 47 48 48 48 49 49 49 48
9 9 10 13 14 17 19 20 20 22 26 31 33 36 38 37 37 38 39 40 41 43 44 45 46 47 47 46 45 46 47 47 48 48 48 49 50 50 49 49 49 49 49
7 8 8 11 12 14 16 18 19 20 22 25 29 33 34 35 34 35 36 38 40 41 43 42 44 45 45 45 45 46 47 47 48 49 50 50 51 51 51 51 52 52 52
8 9 7 8 8 11 13 16 19 19 19 21 24 28 29 29 30 32 34 36 37 38 41 42 42 45 47 48 47 48 47 47 48 50 52 52 52 52 53 53 53 53 53
7 6 5 6 7 9 10 12 15 15 16 17 20 22 24 25 26 28 29 31 33 34 37 38 40 41 43 43 44 44 45 46 48 50 52 52 52 53 53 54 54 53 53
6 5 5 5 6 8 9 9 10 12 14 15 18 20 22 24 24 26 27 28 31 33 34 35 36 37 39 41 42 42 43 45 46 47 48 49 51 53 53 52 52 52 51
6 5 5 4 5 6 7 7 8 9 11 13 15 17 20 22 24 26 27 28 31 33 34 35 35 37 38 39 40 41 42 43 45 46 47 48 51 51 50 51 51 51 52
5 5 4 4 5 5 6 6 6 7 9 12 14 16 18 22 25 27 28 29 31 33 35 37 37 38 39 40 41 42 43 44 46 46 47 48 50 51 51 51 51 52 53
4 4 3 3 3 4 4 6 7 6 8 11 14 17 20 22 25 27 28 30 33 34 36 38 39 40 40 42 42 43 44 45 46 47 48 48 49 50 50 50 51 52 52
2 2 2 1 1 3 5 7 10 11 12 14 17 20 22 24 26 27 29 31 33 34 35 37 39 41 43 44 45 45 45 46 46 46 47 47 47 47 48 49 50 50 50
1 1 2 3 5 7 9 12 13 14 16 18 19 22 25 27 29 30 31 32 33 34 35 37 38 40 42 43 45 46 46 47 47 47 47 47 46 47 47 47 47 48 47
3 4 5 6 8 10 13 15 17 18 20 22 23 24 26 28 30 32 33 33 34 34 35 37 38 39 40 41 42 43 44 46 46 46 47 46 45 45 45 45 46 45 45
6 7 9 11 12 14 16 18 19 21 23 24 25 26 28 30 32 33 34 35 35 35 36 38 38 39 40 41 41 41 43 44 45 44 44 44 44 44 45 45 46 46 45
10 11 13 15 16 18 20 22 23 24 25 27 29 30 32 33 34 35 36 37 38 38 39 39 39 39 41 41 42 43 44 44 45 44 44 44 43 43 44 44 44 44 44
14 15 16 17 19 20 22 24 25 26 28 30 32 34 35 35 35 36 37 39 39 40 40 40 40 41 42 42 43 43 44 44 44 44 44 44 44 44 44 43 42 42 42
16 18 19 20 21 22 23 25 27 28 30 32 33 34 35 36 37 37 38 39 40 41 41 41 41 41 41 42 42 43 43 43 43 43 42 43 43 43 43 42 40 41 41
19 20 21 22 24 25 27 28 29 31 33 34 34 35 35 36 37 39 40 40 41 41 41 40 40 41 42 43 44 43 43 42 42 42 42 42 42 41 41 40 40 40 40
21 22 24 25 27 28 29 31 32 34 35 35 35 35 36 37 38 39 40 40 40 41 40 40 41 42 43 43 43 43 43 43 43 43 42 42 41 40 40 40 39 40 40
23 25 26 27 29 30 31 33 34 35 35 36 36 36 37 38 38 38 39 39 39 40 40 40 41 41 42 42 42 41 42 43 43 42 42 41 40 40 40 39 39 39 40
26 27 28 29 30 32 33 34 35 35 35 36 36 38 39 39 39 38 38 38 38 38 38 39 39 39 39 39 40 40 41 41 41 41 39 39 38 37 37 37 37 38 38

GEFSMW_500_meanwind_138.txt.gz
Wind_Speed
31 34 35 37 40 46 51 53 55 56 59 62 63 63 62 60 58 56 54 53 51 49 47 45 44 43 42 41 40 41 40 41 41 40 39 39 39 39 39 40 39 39 39
26 27 30 32 35 38 43 47 50 51 53 57 59 61 62 61 59 57 56 54 53 51 48 46 44 43 43 42 41 42 42 41 42 43 43 42 41 41 40 41 41 41 42
20 23 26 29 32 35 38 42 46 48 50 52 54 57 60 59 58 57 56 54 53 52 50 49 47 46 45 44 43 44 44 43 43 43 44 44 44 44 43 43 43 44 44
15 18 22 25 28 31 36 38 40 43 46 49 50 53 55 56 56 55 55 54 54 53 51 50 48 46 45 45 46 45 44 44 45 46 46 46 46 46 45 44 45 45 46
13 13 16 20 23 26 30 34 35 37 40 44 46 48 50 51 51 53 54 54 53 53 52 51 49 49 48 47 47 46 46 47 48 49 48 48 48 48 48 47 47 47 48
12 11 12 14 17 21 26 30 32 31 34 39 41 42 43 45 48 51 53 53 54 54 53 52 51 50 50 48 47 48 49 51 51 50 50 50 49 49 49 49 48 48 48
8 7 8 9 12 17 21 24 27 29 31 34 36 37 39 41 43 47 50 52 53 53 51 51 51 51 50 51 51 51 50 50 50 51 51 51 50 50 50 50 50 49 49
4 3 4 4 8 13 14 16 21 26 28 29 32 34 37 39 40 43 47 49 51 50 49 49 50 50 50 50 50 50 49 49 50 52 51 51 51 51 51 51 51 52 50
3 1 1 3 5 8 9 11 15 23 25 25 27 30 33 36 37 39 42 45 47 48 48 47 47 49 50 50 50 49 50 51 51 52 52 51 50 51 51 51 52 52 51
6 5 4 3 3 4 7 10 12 15 19 22 23 24 28 30 32 34 36 38 42 46 47 46 45 45 46 47 48 49 50 50 50 50 51 50 50 52 53 53 53 52 53
6 6 6 4 3 3 3 5 8 11 14 17 19 20 23 25 28 29 32 34 36 39 40 41 42 44 46 46 46 47 48 48 49 50 50 50 50 51 51 52 52 53 53
8 7 7 6 4 3 2 3 4 8 10 13 16 18 21 23 25 27 28 30 33 36 37 38 40 43 44 45 46 47 46 47 47 48 48 49 49 50 51 52 52 52 53
8 7 6 5 3 2 1 2 4 5 7 10 13 15 17 20 21 23 25 28 31 34 36 37 39 41 43 44 44 44 44 44 44 45 47 47 49 50 50 51 51 51 53
8 8 6 5 3 2 1 2 4 5 7 8 9 10 13 16 19 22 25 27 29 30 32 34 36 39 42 44 44 44 44 44 45 46 47 48 48 49 50 51 51 51 52
7 7 6 5 3 3 1 1 3 5 6 8 9 10 12 14 18 21 23 26 28 30 32 33 35 37 39 41 43 44 45 45 46 46 46 46 47 48 50 50 50 51 52
6 5 4 4 3 2 3 4 5 7 8 10 12 12 13 16 19 21 23 25 27 30 32 35 37 38 38 40 43 44 45 45 46 45 45 46 47 48 49 50 51 52 53
5 5 5 4 4 4 5 6 8 9 10 12 14 16 17 19 21 24 26 28 30 32 34 36 37 39 40 41 42 44 45 45 45 45 46 47 48 49 49 49 50 51 53
5 5 6 6 6 7 8 9 11 12 14 15 16 18 21 23 25 27 28 29 31 32 34 36 39 39 40 41 42 44 45 45 46 46 47 46 47 48 48 49 50 51 51
7 7 8 8 9 10 11 12 14 16 17 18 19 21 23 25 28 29 30 32 33 34 35 36 38 38 39 41 42 44 45 46 47 47 48 48 48 48 48 48 48 48 48
9 9 10 11 12 13 15 16 18 19 21 22 23 24 26 27 29 30 32 34 35 35 35 35 35 38 40 41 43 45 46 47 48 48 49 49 49 49 49 49 48 46 45
12 12 13 14 16 17 19 20 22 23 25 26 27 28 28 29 30 32 34 36 36 35 35 35 37 38 40 42 43 44 44 45 46 46 47 48 49 49 49 48 47 46 45
14 15 16 18 19 21 22 24 26 27 28 29 30 30 30 32 33 34 35 35 35 34 35 37 38 39 40 40 41 42 43 43 43 43 44 45 45 46 47 46 46 45 44
17 18 19 20 21 23 25 26 28 29 30 31 31 32 33 34 35 35 35 35 35 35 36 37 38 39 39 40 40 41 42 43 43 43 43 42 43 43 44 44 44 44 44
20 21 23 23 25 26 27 28 29 30 31 32 33 34 34 35 35 35 36 36 37 37 37 37 38 38 39 39 40 40 41 42 42 43 42 41 41 41 41 41 41 40 41
23 24 25 26 28 29 30 30 31 32 34 34 35 35 35 35 35 35 36 37 38 38 38 38 38 38 38 37 38 38 39 40 40 40 40 40 39 39 39 39 38 37 36
26 27 28 29 30 31 31 32 33 34 34 35 36 36 37 36 36 36 37 36 37 37 38 37 38 38 38 37 36 36 36 36 36 37 37 37 37 37 37 36 35 36 36

GEFSMW_500_meanwind_144.txt.gz
Wind_Speed
31 33 35 38 40 42 44 47 50 53 55 57 59 60 61 61 61 60 59 58 56 56 55 54 52 50 49 46 45 45 44 42 42 42 41 40 40 40 39 38 38 38 38
28 31 32 33 35 37 39 42 46 49 52 55 56 57 59 60 59 58 58 57 56 56 55 54 54 52 51 49 47 47 45 44 43 43 43 42 42 42 41 41 40 41 41
27 29 30 31 33 34 36 37 39 43 46 50 53 55 57 58 59 58 58 57 56 56 55 53 53 54 53 51 49 49 47 46 45 45 44 44 44 42 42 42 43 43 43
24 26 27 28 29 30 31 33 35 38 41 47 50 51 53 54 55 55 56 55 55 55 55 55 54 53 53 53 51 50 48 47 46 46 45 46 46 45 44 44 44 45 45
20 23 23 23 24 25 27 30 32 35 37 40 43 45 48 51 51 52 53 54 54 55 55 55 53 52 53 53 51 51 51 49 47 48 47 48 48 47 48 46 46 47 47
16 17 17 18 19 21 23 25 27 29 32 35 39 41 43 46 48 48 48 50 53 53 53 54 53 52 53 54 53 52 52 51 49 49 48 49 49 49 49 49 48 48 47
11 12 12 12 13 14 16 18 21 24 27 30 34 37 40 42 44 44 43 45 48 50 50 51 52 53 53 55 55 54 53 52 52 52 51 51 51 51 49 49 49 49 49
8 8 8 7 8 10 12 14 17 20 22 25 28 31 34 36 38 39 39 41 43 46 47 49 51 52 53 54 55 56 54 54 54 53 52 53 52 52 51 51 51 51 51
7 7 7 6 5 5 7 10 13 15 17 20 23 26 28 30 32 34 35 37 40 42 44 45 47 50 52 53 54 54 54 54 54 54 54 54 53 53 53 54 54 54 53
7 6 6 6 3 3 3 5 8 11 14 16 20 23 25 26 28 30 32 34 36 39 41 43 44 47 50 51 53 53 53 53 54 55 55 54 54 55 54 54 54 54 54
8 8 7 7 4 2 1 2 6 9 11 13 16 20 22 23 24 25 27 29 33 37 39 41 43 44 47 49 50 52 53 53 53 53 53 54 55 55 55 55 54 54 55
9 9 8 8 7 4 1 1 2 4 6 9 11 14 18 20 21 22 24 26 29 33 36 39 40 41 43 45 47 50 51 52 52 52 53 53 53 54 54 54 53 53 54
10 10 10 10 9 7 4 1 1 1 3 5 7 10 14 17 19 21 23 25 27 30 33 37 39 41 42 44 46 47 49 50 50 51 51 51 52 53 53 53 52 52 53
9 10 11 10 9 9 6 4 2 1 1 3 6 8 12 15 17 20 22 25 26 28 31 34 37 39 41 42 44 45 47 49 49 49 49 50 52 53 52 52 52 52 53
9 9 10 9 9 8 6 4 3 1 1 4 6 9 11 13 16 18 20 22 24 27 29 31 33 35 38 40 43 44 46 48 49 49 50 51 52 52 51 51 51 52 54
9 9 9 9 8 7 6 4 3 3 4 6 7 9 12 14 15 17 18 20 23 25 27 28 31 34 36 39 42 44 45 47 48 49 50 51 52 51 51 51 52 52 53
8 9 8 8 8 7 6 6 6 7 8 9 10 12 14 16 18 19 20 22 24 25 27 29 31 33 35 38 41 43 45 46 47 47 49 51 50 51 53 54 53 53 53
9 8 9 8 8 7 8 8 8 8 9 11 13 14 16 17 19 20 21 22 23 25 26 28 30 32 34 37 39 41 42 43 45 46 47 49 49 51 52 53 54 54 54
10 10 10 10 10 9 10 10 10 11 12 14 16 17 18 19 20 21 22 23 24 26 27 28 30 31 33 36 38 39 40 41 42 43 44 46 47 48 50 51 52 52 52
12 12 12 13 13 13 13 13 13 13 14 16 17 19 20 21 22 22 23 24 26 26 28 28 30 33 34 35 36 37 38 39 40 42 42 44 45 46 47 48 49 50 50
13 13 14 15 15 15 16 17 17 17 18 19 20 22 23 23 24 25 26 27 27 28 29 30 32 34 34 34 34 35 37 38 38 40 40 41 42 43 44 45 46 47 48
15 16 17 18 18 18 19 19 20 21 22 23 24 25 26 26 26 27 27 28 29 30 31 32 34 34 34 33 34 35 36 36 37 37 38 38 39 40 41 42 43 44 45
19 19 19 20 21 21 22 23 23 24 25 26 28 29 29 28 28 28 28 29 30 31 32 33 34 34 34 34 34 34 34 34 34 34 35 36 37 37 38 40 41 42 42
21 21 21 22 23 24 25 26 26 27 28 28 29 30 30 30 29 28 29 30 31 32 33 33 34 33 33 33 33 33 34 34 34 33 33 33 33 34 35 36 38 39 39
23 24 24 25 26 26 27 28 28 29 30 30 31 31 31 31 30 30 30 31 31 32 33 33 33 33 33 33 33 32 32 32 32 32 31 31 31 31 32 33 33 34 35
26 26 26 27 27 28 29 30 30 31 32 32 32 32 31 31 32 32 32 33 33 33 33 33 33 32 32 31 31 31 31 31 30 30 29 29 28 29 30 30 31 32 32

GEFSMW_500_meanwind_150.txt.gz
Wind_Speed
34 35 36 37 38 39 39 40 42 43 44 46 48 50 52 54 56 56 58 59 59 58 58 57 56 55 53 51 50 50 49 47 47 46 45 44 43 42 40 40 39 38 38
32 32 34 35 36 37 38 39 40 42 44 45 45 46 48 50 52 54 56 57 58 58 57 57 56 56 54 52 52 51 50 49 48 48 48 47 45 43 41 41 41 40 40
30 31 32 34 35 36 36 37 38 39 41 42 44 46 46 47 49 51 52 55 56 56 56 56 56 56 55 53 53 52 50 49 49 49 49 49 47 45 44 43 43 42 42
29 30 31 31 33 34 34 35 36 37 39 39 40 43 44 45 46 48 48 51 53 55 56 56 56 56 56 54 53 52 52 51 51 51 50 50 50 49 47 45 45 45 45
28 28 29 29 30 30 31 32 34 35 37 38 39 40 41 42 44 45 47 48 51 53 55 55 55 54 54 53 52 50 51 52 52 53 53 52 52 52 51 49 48 48 47
25 26 27 27 27 27 27 29 30 30 31 33 35 36 38 39 41 43 44 46 47 49 51 52 54 52 52 53 53 50 50 51 52 53 53 53 54 54 54 53 50 50 49
22 23 24 24 24 24 24 25 26 27 28 29 31 32 34 35 37 39 41 43 44 45 47 49 50 50 50 50 51 50 49 49 51 51 51 52 53 54 55 56 53 52 51
18 19 19 19 19 20 20 21 21 22 23 24 25 27 28 28 30 33 35 38 40 40 40 42 46 47 48 48 49 50 50 50 50 51 50 52 53 53 54 55 56 54 52
15 15 15 14 14 15 16 17 17 18 18 19 20 22 24 25 27 30 32 33 34 35 36 38 41 42 44 44 46 48 49 50 50 51 52 52 53 54 54 54 54 55 54
11 11 11 9 10 12 13 14 14 13 13 14 16 18 20 21 23 26 28 30 31 32 32 35 38 40 41 42 43 45 47 48 48 50 51 53 54 54 54 54 54 54 54
8 8 7 8 9 10 11 11 11 10 10 11 12 13 14 16 18 21 23 26 28 30 31 32 36 38 40 41 43 44 46 47 48 49 51 53 52 53 53 53 53 54 54
6 7 7 8 10 10 10 10 10 10 9 10 10 11 12 14 16 18 20 23 25 27 29 32 35 36 38 39 41 43 44 46 48 49 50 50 51 51 52 53 53 54 54
6 6 7 8 9 10 11 11 11 10 9 9 9 10 11 12 14 15 17 19 20 22 24 27 31 34 35 37 39 40 42 44 47 48 48 49 49 49 50 52 53 54 55
7 8 7 9 10 11 11 11 11 11 10 10 10 9 9 10 11 12 14 17 20 22 24 27 29 31 33 35 37 39 41 42 44 45 46 46 47 48 49 50 52 53 54
8 8 9 10 11 11 12 12 12 12 12 11 10 9 9 9 10 13 15 18 20 23 25 27 28 30 31 33 35 38 40 41 42 43 43 44 46 47 49 50 50 51 53
8 10 11 11 12 12 11 12 13 13 13 13 11 10 11 12 13 14 16 18 21 23 24 26 27 28 30 31 34 36 38 38 39 41 42 42 43 45 48 50 50 51 51
10 11 11 12 13 13 12 13 13 13 14 13 13 13 13 14 15 16 18 20 22 23 24 26 27 29 30 32 33 33 35 37 38 39 39 40 42 44 46 47 48 48 49
11 12 12 13 13 13 13 14 13 14 14 14 14 14 14 16 17 19 20 21 22 23 24 26 28 29 30 31 31 32 34 36 37 37 37 38 39 40 42 44 46 47 46
13 13 14 14 14 14 14 15 15 15 16 16 16 16 17 18 20 21 22 22 23 24 24 26 27 28 29 29 30 32 33 34 35 36 37 37 38 39 41 42 43 42 43
15 15 16 16 16 16 16 16 17 17 18 18 18 19 20 21 22 22 23 24 24 24 24 25 26 28 29 29 30 31 32 33 34 36 36 37 38 39 39 39 39 39 40
17 17 17 17 17 18 18 18 19 19 20 21 22 23 23 23 24 25 25 26 26 26 26 26 27 27 28 29 30 31 32 32 33 34 35 36 37 37 37 37 37 37 37
20 20 19 19 20 20 20 21 21 22 23 24 26 26 26 26 26 27 27 27 27 27 28 28 28 28 29 30 31 32 32 33 33 34 35 36 36 36 37 36 36 36 35
22 22 22 22 22 23 23 24 24 25 26 27 28 29 29 29 29 29 29 29 29 29 28 28 29 30 30 31 32 32 33 33 34 34 35 35 35 36 36 36 35 35 34
24 24 25 25 25 25 26 26 27 28 28 29 30 31 31 32 32 31 30 30 30 30 30 30 30 30 31 32 32 32 32 33 33 33 33 33 34 34 34 34 35 34 34
26 27 28 28 28 28 29 29 30 30 31 32 32 33 34 34 33 33 32 31 31 31 32 32 32 31 31 31 32 32 31 32 33 33 32 32 32 32 32 32 33 33 32
28 29 29 30 30 31 31 32 33 33 34 34 35 36 36 36 35 35 34 33 33 33 33 33 32 31 31 30 31 31 31 31 32 32 31 31 31 31 30 31 31 31 31

GEFSMW_500_meanwind_156.txt.gz
Wind_Speed
35 35 36 37 37 38 39 40 41 42 43 44 44 44 45 46 47 48 49 50 52 53 53 53 54 55 55 55 53 53 53 51 50 49 48 48 47 47 44 43 42 42 42
32 33 34 35 36 36 36 37 39 41 42 43 43 44 45 46 46 47 48 49 51 52 53 53 54 54 55 55 54 54 53 52 51 50 49 49 49 49 47 45 44 43 43
31 32 33 34 35 35 36 36 37 39 40 41 42 42 43 44 45 46 47 49 50 51 53 54 54 53 53 53 54 53 52 52 52 52 51 51 51 48 47 45 45 45 45
30 30 31 32 32 33 33 34 35 35 37 38 39 41 41 42 43 44 45 46 48 49 51 52 53 54 53 53 52 52 53 54 54 54 53 53 51 50 48 47 47 46 46
27 28 28 29 29 29 30 31 32 33 33 35 36 38 39 40 41 42 43 44 45 47 48 49 50 52 52 52 52 52 52 53 54 53 52 52 53 52 51 50 50 50 48
24 26 26 27 28 29 30 30 31 31 32 33 34 35 37 39 40 41 42 43 43 43 45 47 48 49 50 50 51 52 52 51 51 52 53 53 52 52 52 52 51 51 49
22 23 24 26 26 26 26 27 28 29 30 31 32 33 34 36 37 39 40 40 41 42 42 43 45 47 48 49 50 51 51 51 51 51 52 52 52 52 52 53 52 51 50
19 21 22 23 23 24 24 25 26 27 27 28 28 29 30 31 32 35 37 37 38 38 39 40 42 44 46 47 48 49 50 50 51 51 51 51 52 53 53 53 53 52 51
17 18 18 18 19 20 21 22 22 23 23 24 25 26 27 29 30 31 33 34 35 35 36 37 39 41 44 46 46 46 47 48 50 50 50 50 51 52 52 52 51 52 52
17 16 16 16 16 16 17 18 19 20 21 22 22 22 24 26 28 28 28 29 31 32 32 33 36 38 40 43 45 46 47 47 48 48 48 49 49 50 51 51 51 51 52
14 15 14 14 13 14 15 16 17 18 18 19 19 19 21 21 22 24 25 26 27 29 30 31 32 34 36 39 41 43 45 47 48 47 48 48 49 48 50 51 51 52 53
12 12 13 12 13 13 14 15 15 15 16 16 17 17 17 17 18 20 22 24 26 27 29 30 30 31 33 36 38 40 44 46 46 45 46 48 49 49 50 51 52 52 52
10 10 10 11 11 12 12 12 13 13 14 14 14 14 15 15 16 18 19 20 22 24 27 28 29 30 31 33 35 38 41 42 42 43 45 46 48 48 49 50 51 52 53
9 9 9 8 9 10 10 10 11 13 13 13 13 13 14 14 15 16 16 17 18 20 22 24 25 27 29 31 33 36 38 39 41 42 43 44 45 46 47 48 50 50 52
8 8 8 8 8 9 9 10 11 12 13 13 13 13 12 13 14 14 15 16 18 19 20 22 23 26 27 29 30 31 34 37 39 39 40 42 44 45 46 47 48 49 50
8 8 8 8 9 9 10 10 11 12 13 13 13 13 13 13 14 14 15 16 17 18 20 22 24 26 26 28 29 30 33 35 37 39 41 42 44 44 45 46 47 46 47
9 9 9 10 10 11 11 12 13 13 13 13 13 14 14 15 16 16 17 18 19 20 22 23 24 25 27 28 29 31 33 35 36 37 39 41 43 43 44 44 44 44 44
11 11 11 12 12 12 12 13 14 15 15 15 15 15 16 17 18 18 19 20 21 21 22 24 25 27 28 29 30 31 33 34 36 38 38 40 41 41 42 43 42 42 42
12 12 13 13 13 13 14 15 16 16 17 18 18 19 18 19 20 20 21 22 22 23 25 26 28 29 28 29 30 31 32 34 36 37 37 38 38 39 40 41 41 41 41
14 14 14 15 15 16 17 17 18 19 20 20 21 21 21 21 22 23 24 25 25 27 28 29 30 30 30 30 30 31 32 33 33 34 36 37 38 39 40 40 40 40 40
15 16 16 17 18 18 19 20 21 22 23 23 23 23 23 24 25 26 26 27 28 28 30 30 31 31 31 32 32 31 32 32 33 34 35 36 37 38 38 39 39 39 39
18 18 18 19 20 21 21 22 23 24 25 26 27 27 27 27 27 28 29 29 30 30 31 32 31 31 31 32 32 32 32 33 33 34 35 36 36 36 37 37 37 37 37
20 21 21 22 22 23 24 24 25 26 27 28 29 29 30 30 30 31 31 32 32 32 33 32 32 32 32 32 33 33 33 33 33 33 34 34 34 34 34 35 35 35 36
23 24 24 25 25 26 26 27 28 29 29 30 31 31 32 32 33 33 33 34 35 35 35 34 33 33 33 33 34 34 33 33 33 33 33 33 33 33 34 34 34 34 34
26 26 26 27 28 28 29 30 31 32 32 33 33 33 33 34 34 35 36 37 37 37 36 35 35 34 34 34 34 33 33 33 33 32 33 33 33 32 33 34 34 33 33
27 28 28 29 29 30 31 31 32 33 34 34 35 35 36 36 38 38 39 39 38 37 36 36 35 35 35 35 35 34 34 34 34 34 34 33 33 32 33 33 33 33 34

GEFSMW_500_meanwind_162.txt.gz
Wind_Speed
36 37 37 38 38 38 39 39 40 41 41 42 42 42 42 43 44 44 45 45 45 46 47 48 49 50 51 51 51 51 51 52 52 53 52 51 51 50 50 49 49 48 47
36 37 37 38 38 38 38 38 39 40 40 40 41 41 42 43 43 44 45 46 46 47 47 48 49 50 51 52 52 53 53 52 52 53 52 53 52 51 51 50 49 49 49
35 36 36 36 36 37 37 37 38 38 39 39 40 41 42 43 44 45 46 46 47 47 48 48 49 50 50 51 52 53 54 53 53 53 53 53 52 52 52 51 50 50 50
33 34 34 35 34 34 35 35 36 36 37 38 39 40 41 42 44 45 46 47 47 47 47 47 48 49 49 50 50 51 52 53 52 53 54 55 54 53 52 51 51 51 51
32 32 32 33 33 32 32 33 33 33 34 36 37 38 39 40 41 42 43 43 44 44 45 45 46 47 48 48 49 50 50 52 52 52 53 55 55 54 54 53 51 51 51
31 31 30 30 31 31 32 32 32 32 33 34 35 37 38 39 39 39 41 42 43 43 43 43 45 45 46 47 48 49 49 51 52 52 52 53 54 53 54 54 53 52 51
29 28 28 28 29 30 31 31 31 31 32 33 34 35 36 37 38 38 39 40 41 42 42 43 44 44 44 45 45 46 47 48 50 51 51 52 53 54 54 55 53 52 51
25 26 26 26 27 28 29 31 31 31 32 33 34 34 34 34 35 34 35 36 38 39 41 42 43 43 43 43 43 43 43 44 46 48 49 50 51 51 52 52 52 53 52
23 24 25 25 26 27 29 30 30 31 31 32 31 31 31 32 32 32 33 34 35 37 38 39 40 41 40 40 40 42 42 43 45 46 47 48 47 47 48 50 51 52 52
23 23 24 24 26 27 28 29 29 29 29 29 29 28 29 30 31 31 31 33 33 33 33 35 37 38 39 40 40 41 42 43 45 47 47 47 48 48 49 50 52 52 52
21 22 23 24 24 25 26 26 27 27 27 27 26 26 26 27 28 28 29 30 30 31 32 33 34 36 37 38 39 40 41 42 44 46 46 47 49 49 50 50 51 53 53
20 21 21 22 22 22 22 23 23 24 24 24 24 24 24 25 26 26 27 27 27 28 29 31 32 33 33 35 36 38 39 40 41 43 45 47 48 49 49 50 51 51 52
19 19 19 19 19 20 20 20 20 21 22 22 22 23 23 23 24 24 25 25 25 25 26 27 28 29 30 32 34 36 37 38 40 43 45 46 47 48 50 51 51 51 51
17 17 17 18 18 19 19 19 18 19 21 22 22 21 21 21 22 22 22 23 23 23 23 24 26 27 29 31 33 35 37 37 38 40 42 44 45 47 49 50 50 50 50
17 17 17 17 17 18 18 18 18 18 19 19 19 19 20 20 21 21 21 22 22 23 23 25 26 27 29 31 32 34 35 36 37 37 39 41 43 44 46 47 49 49 50
16 16 16 16 16 16 16 16 16 16 16 16 17 18 19 19 20 21 22 23 24 24 25 26 27 28 29 30 31 32 33 34 35 37 38 40 42 43 44 46 46 47 48
15 15 15 16 16 16 15 15 15 16 16 17 17 19 20 21 22 22 23 23 24 26 27 27 28 29 29 30 31 32 32 34 35 37 39 41 40 42 43 45 45 45 45
15 15 15 15 16 16 16 16 16 17 17 18 20 21 22 23 23 24 24 25 26 27 28 29 29 29 30 31 32 33 34 35 36 37 38 39 39 41 42 43 44 44 44
15 15 16 16 16 16 17 18 19 19 20 20 21 22 23 24 24 24 25 26 27 28 29 30 31 31 31 32 33 35 35 36 36 37 38 39 41 41 43 43 44 43 42
16 16 17 17 18 18 19 20 21 21 21 22 23 23 23 25 26 26 27 28 29 30 31 32 32 33 34 34 35 35 35 36 36 37 37 39 40 41 42 43 43 42 42
18 18 19 19 20 21 21 22 23 23 24 24 24 25 26 27 28 28 29 29 30 31 32 32 33 33 34 34 34 34 35 35 36 35 35 37 38 39 40 40 39 39 39
20 21 22 22 23 23 24 25 25 26 26 27 27 28 29 29 30 30 30 31 32 32 33 33 33 34 34 34 34 34 35 35 35 35 35 35 35 36 36 36 36 36 37
23 24 24 25 25 26 26 27 28 28 28 29 30 30 31 31 32 32 32 32 33 33 34 34 34 34 35 35 35 35 36 35 35 34 34 34 34 34 33 34 34 33 34
26 26 26 27 28 28 28 28 29 30 31 31 32 33 33 33 34 34 34 35 35 35 36 36 36 36 36 36 36 36 36 35 34 33 32 32 32 33 32 32 33 33 33
27 28 28 29 29 30 30 31 32 32 33 34 34 34 35 35 36 36 37 37 37 38 38 38 38 38 38 38 38 38 37 35 34 34 33 33 33 33 33 33 33 33 33
29 30 30 30 31 31 32 33 33 34 35 36 36 36 36 37 37 38 38 39 39 39 39 39 40 40 40 40 40 39 38 37 37 35 34 34 34 34 34 33 33 33 33

GEFSMW_500_meanwind_168.txt.gz
Wind_Speed
35 35 34 34 34 34 35 36 37 37 37 37 37 38 38 38 38 39 39 40 42 42 42 42 43 43 44 44 45 45 46 46 47 47 47 47 48 48 50 51 51 50 50
34 34 34 34 34 34 35 35 36 37 37 37 37 37 37 37 37 37 38 39 40 41 42 43 44 45 45 45 46 47 47 47 47 47 48 48 49 49 51 52 53 52 52
33 34 34 34 34 34 34 34 35 36 37 37 36 37 37 36 36 37 38 38 39 39 40 42 44 45 46 46 46 47 48 49 49 49 50 50 50 50 51 52 53 54 53
34 35 34 34 34 34 34 34 35 35 35 36 36 36 36 37 37 38 38 38 39 40 40 41 43 45 46 47 48 48 48 48 49 50 50 50 50 50 50 51 52 54 54
33 33 33 33 33 34 34 34 34 34 35 35 35 36 36 36 37 37 37 38 38 39 40 41 43 44 45 46 47 47 48 48 48 49 49 49 50 50 50 50 52 53 54
32 32 33 33 33 33 33 33 33 33 34 34 35 35 35 35 36 37 37 37 38 38 39 41 41 42 43 44 45 46 46 47 47 47 48 48 49 50 50 50 51 52 53
30 31 32 32 32 32 32 32 32 32 32 33 33 34 34 35 35 36 36 36 37 38 39 40 40 40 41 43 45 45 45 46 47 47 47 48 48 49 50 50 50 51 51
29 30 30 31 32 31 32 31 31 31 31 30 30 31 32 33 34 34 35 36 36 38 39 39 39 39 40 42 43 44 44 45 46 46 47 48 48 48 49 49 49 50 49
26 28 29 29 30 29 30 30 30 30 30 29 29 30 31 32 33 33 33 34 35 36 37 37 38 39 39 40 41 42 43 44 45 45 45 46 47 47 48 48 49 49 48
24 26 27 27 27 28 28 29 29 30 30 30 30 30 31 31 32 33 33 33 33 34 34 35 36 37 37 38 38 39 40 42 43 43 44 44 45 46 46 46 47 47 47
22 24 25 26 26 27 27 28 29 29 29 30 30 31 31 31 31 32 32 32 33 33 33 33 34 35 35 36 37 37 39 40 41 42 43 43 43 44 45 45 46 47 47
21 22 23 24 25 26 27 27 28 28 28 28 28 29 30 30 30 30 31 32 33 33 33 33 33 33 34 36 36 37 37 38 38 39 40 41 42 43 43 44 45 47 48
21 22 22 23 24 25 26 27 27 27 27 28 28 28 29 29 29 30 30 31 31 31 32 32 32 33 33 34 34 35 35 36 36 37 38 39 40 41 42 43 44 46 48
20 20 21 22 23 23 24 25 25 26 27 27 27 28 28 28 28 29 29 29 29 29 30 31 31 32 31 32 32 33 33 34 35 35 36 38 39 40 41 42 44 45 47
19 19 20 20 20 20 21 22 23 24 25 26 26 27 28 28 28 28 29 29 29 29 30 30 30 31 31 31 31 31 32 33 33 34 35 36 38 40 41 42 43 44 46
19 20 20 20 20 20 20 21 21 22 23 24 25 26 27 27 27 27 28 28 29 29 29 29 30 30 30 31 31 32 32 33 33 34 35 37 38 40 41 42 43 44 45
19 19 19 19 19 20 21 21 21 21 22 23 23 24 25 26 27 27 27 28 28 29 29 29 30 30 31 31 31 32 33 34 34 34 35 37 37 38 39 40 41 42 44
19 19 19 19 19 20 20 21 21 22 22 23 24 25 25 26 26 27 27 28 29 29 30 30 31 31 31 31 31 32 33 34 34 35 36 36 36 36 37 38 39 40 42
19 19 20 20 20 21 22 22 22 22 23 23 24 25 25 26 26 26 27 28 29 30 30 31 32 32 32 32 32 33 33 34 35 35 36 36 36 36 36 37 38 39 41
20 20 20 21 21 21 22 23 23 24 24 24 25 26 27 27 28 28 29 29 30 31 32 32 33 33 33 33 34 34 34 34 35 36 37 36 35 35 36 37 38 39 40
21 21 21 21 21 22 23 23 24 25 26 27 27 28 28 29 29 30 30 31 32 32 33 33 34 34 34 35 35 36 36 35 36 36 37 36 36 36 36 37 37 38 39
23 23 22 23 23 24 25 25 27 28 28 29 29 29 30 30 31 31 32 33 34 34 35 35 35 36 36 36 37 37 37 37 36 36 36 36 36 37 37 37 37 38 38
23 23 24 24 26 27 28 28 29 30 30 30 31 31 32 32 33 33 34 35 35 36 36 37 37 37 37 37 38 38 38 37 37 36 36 36 36 37 36 37 37 38 38
24 24 25 26 27 28 29 30 31 31 31 32 32 33 33 34 35 36 36 36 37 37 37 38 38 38 38 38 38 38 38 38 38 38 37 38 38 37 37 37 38 38 38
25 26 27 28 29 30 30 31 32 32 32 32 33 34 34 35 36 37 38 38 38 39 38 39 39 39 39 39 39 39 39 38 38 38 38 37 38 38 38 38 38 38 37
28 28 29 29 30 31 32 33 33 33 33 34 35 35 36 37 37 38 38 39 40 39 39 39 38 38 38 38 38 38 38 38 38 38 38 38 38 38 38 38 38 38 37

GEFSMW_500_meanwind_174.txt.gz
Wind_Speed
33 33 33 33 33 34 34 35 35 35 35 35 35 36 36 37 37 36 37 37 38 38 38 38 38 39 39 40 40 40 40 41 41 42 42 42 42 43 43 44 44 44 44
34 34 34 34 34 34 34 35 35 36 36 35 35 36 36 37 37 37 36 36 37 37 37 37 37 38 38 39 40 40 40 41 41 42 43 43 44 44 44 45 45 45 46
33 34 35 34 35 35 35 35 35 35 35 35 36 36 36 36 36 36 37 38 38 37 37 37 37 38 39 39 39 40 41 41 42 43 44 44 45 45 45 45 46 47 46
33 34 35 35 35 35 35 35 35 35 35 35 36 36 36 36 36 37 37 37 37 37 37 37 38 39 39 40 40 40 41 42 42 43 44 45 45 46 46 46 46 46 46
32 33 34 35 35 35 35 35 35 35 36 36 36 36 36 36 36 37 37 37 37 38 38 38 39 39 39 39 39 40 41 42 42 43 44 45 46 47 47 46 46 46 47
30 32 34 35 35 35 35 34 34 35 35 36 36 37 37 37 37 37 36 36 37 37 38 38 38 38 38 39 39 40 41 42 42 43 44 44 45 46 47 48 47 47 47
29 31 33 34 34 34 34 34 34 35 35 35 36 36 36 37 37 37 37 37 37 37 37 38 38 38 38 39 39 40 40 41 41 42 43 43 44 44 45 46 47 48 48
26 28 30 32 33 34 35 35 36 36 36 36 36 36 37 37 37 37 37 38 38 37 37 37 38 38 39 39 40 40 40 41 41 41 42 43 43 44 45 46 47 48 48
25 26 28 30 32 33 34 35 36 36 37 37 37 38 37 37 37 37 37 37 38 37 37 37 37 37 38 38 38 38 39 39 40 41 41 42 44 45 46 47 48 48 48
25 26 28 30 31 33 34 35 35 36 36 37 37 37 37 36 36 36 36 36 37 37 37 37 37 37 37 37 37 38 38 39 40 41 41 43 44 46 46 47 47 47 47
25 27 28 30 31 31 32 33 33 34 34 35 35 35 35 35 34 35 35 35 36 36 36 36 36 36 37 37 37 38 38 39 40 41 42 44 45 45 45 45 46 46 46
25 26 27 28 29 30 31 31 32 33 33 33 33 34 34 34 34 35 35 35 35 35 35 35 35 36 36 36 37 38 38 39 40 41 42 44 45 44 45 45 45 44 44
24 25 26 26 28 29 29 30 30 31 31 32 32 32 33 33 34 34 34 34 34 35 35 35 36 36 36 37 37 38 38 39 40 41 42 43 43 43 43 43 43 43 43
25 25 25 26 27 28 29 29 30 30 30 30 31 31 31 32 33 33 33 34 35 35 35 35 35 36 36 37 37 38 38 39 40 40 41 41 42 42 42 42 42 43 43
25 26 26 27 28 28 28 28 28 29 29 29 30 30 31 31 32 32 33 33 33 34 34 35 36 36 37 37 38 38 39 39 40 40 40 40 41 41 41 41 41 42 42
26 27 27 28 28 28 28 28 28 28 28 29 30 30 30 31 31 32 33 33 34 35 35 36 36 37 37 37 38 38 38 39 39 39 39 40 40 40 40 40 40 41 41
27 28 28 28 28 28 28 28 28 29 29 29 29 30 31 31 32 32 33 33 33 34 35 35 36 36 37 37 38 38 38 39 39 39 39 39 40 40 40 40 40 41 41
28 27 27 28 28 29 29 28 29 29 30 30 30 31 32 32 32 33 34 34 35 35 35 35 35 36 37 37 38 38 39 40 40 41 40 40 40 40 40 40 41 41 42
28 28 28 28 28 28 28 28 29 29 30 30 31 31 32 32 33 34 34 35 35 35 35 35 35 36 36 37 38 38 39 40 41 41 41 41 41 41 41 41 41 42 42
29 29 29 28 28 28 28 29 29 29 30 31 32 32 32 32 33 34 34 35 35 36 36 36 36 36 37 38 38 39 40 40 40 41 42 42 42 42 42 41 41 41 41
29 29 29 29 29 29 29 29 29 30 31 31 32 32 33 33 34 35 35 35 36 36 36 36 37 38 39 39 39 39 40 40 40 40 41 41 40 40 40 41 41 40 40
30 30 29 29 29 29 29 29 30 31 31 32 32 33 33 34 34 35 35 35 35 36 37 37 38 39 39 39 40 40 40 40 40 40 40 40 40 40 40 40 40 40 40
30 29 29 28 28 28 28 29 29 30 31 31 32 33 33 34 35 35 36 36 36 37 38 38 39 39 39 40 40 40 40 40 40 40 40 40 39 39 40 40 40 40 39
30 29 29 28 28 28 28 29 30 30 31 31 32 33 34 35 35 36 37 37 38 38 38 39 39 39 39 39 40 39 40 40 39 39 39 39 39 39 39 39 39 39 39
30 30 29 29 29 29 29 30 31 31 32 32 33 34 34 35 35 36 37 38 38 39 39 39 39 39 39 39 39 39 39 39 39 39 39 39 39 39 39 39 39 39 39
31 31 31 31 31 31 31 31 32 32 32 33 33 34 34 35 35 36 37 38 38 38 39 39 39 39 39 38 38 38 38 39 39 39 39 38 38 38 39 39 39 39 39

GEFSMW_500_meanwind_180.txt.gz
Wind_Speed
31 31 30 31 30 31 32 32 33 33 34 33 34 35 35 36 37 37 36 35 36 36 36 36 36 36 37 38 38 39 39 38 39 40 40 41 42 43 43 43 44 43 42
29 29 30 30 31 31 32 33 34 34 34 35 35 36 37 37 37 37 37 36 36 36 36 36 37 37 37 38 38 38 38 39 39 40 40 41 41 42 43 44 44 44 43
27 28 29 30 31 32 32 33 34 34 34 35 36 36 37 37 37 37 37 37 37 37 36 36 38 37 37 38 38 38 39 40 41 41 41 41 40 41 42 43 43 43 43
27 28 28 30 31 31 32 32 33 35 35 35 37 37 37 37 36 37 37 37 37 37 36 36 36 36 37 38 38 38 39 39 40 40 41 41 40 41 41 42 43 43 44
26 27 28 29 31 32 33 33 33 34 35 36 37 37 37 37 37 37 37 37 37 37 37 37 36 36 37 37 37 39 39 39 40 40 40 41 41 41 42 42 43 44 45
26 26 28 29 30 32 33 33 34 34 35 36 36 37 38 37 37 37 37 37 37 38 38 38 38 38 37 37 38 39 39 40 40 40 41 41 41 42 43 43 43 44 45
25 26 27 29 31 31 32 33 34 34 34 35 35 36 36 36 37 38 38 38 38 38 38 38 38 38 38 38 39 39 39 40 40 41 41 42 42 42 43 43 43 43 43
24 25 27 28 30 31 32 32 33 34 35 36 36 36 37 38 38 39 39 39 38 38 38 39 39 39 39 39 39 39 40 40 40 41 41 42 43 44 44 44 44 44 43
23 25 26 27 29 30 32 33 33 34 35 36 37 37 38 39 39 40 40 40 40 39 39 40 40 40 40 40 40 40 40 40 40 41 41 42 43 43 43 44 44 44 44
23 24 26 27 28 30 31 33 34 35 36 36 38 38 39 39 39 39 39 39 40 40 39 39 39 39 39 39 40 40 39 40 40 40 40 41 41 42 43 43 44 45 45
23 24 25 27 28 29 31 32 34 35 36 37 37 38 38 37 38 39 39 39 39 39 39 39 39 39 39 38 39 39 39 39 39 40 40 41 42 42 43 43 44 45 46
24 25 26 27 28 30 31 32 33 34 35 36 37 37 37 36 37 37 37 37 37 38 38 38 39 39 39 39 39 39 39 39 39 40 40 41 41 42 43 44 44 45 47
24 25 26 27 28 29 31 32 33 34 35 35 36 36 36 36 36 36 35 36 36 36 37 38 38 39 39 39 40 40 40 40 40 40 40 40 41 42 43 44 44 45 46
24 25 26 27 28 30 31 32 33 34 34 34 35 36 36 36 36 36 36 37 37 37 38 38 39 40 40 40 40 41 41 41 41 41 41 41 42 42 43 44 44 45 46
25 25 26 28 29 30 31 32 33 33 34 34 35 35 36 36 36 37 37 37 38 39 39 40 40 40 40 40 40 41 41 41 42 42 42 42 42 42 43 44 44 45 46
26 27 28 29 29 30 31 31 31 32 32 33 34 35 36 36 37 37 37 37 38 39 40 40 40 41 41 41 41 41 41 41 41 42 42 43 43 43 44 45 45 46 46
28 28 29 30 30 31 31 31 31 31 32 33 34 35 35 36 36 37 37 38 38 39 40 40 40 41 41 41 41 41 40 40 41 41 42 43 44 45 45 46 46 45 45
29 30 30 30 31 31 31 31 31 32 33 33 34 35 35 35 36 36 37 38 39 39 40 40 41 41 41 41 42 41 41 41 42 42 43 44 44 45 45 45 45 45 45
30 30 31 32 32 32 32 32 32 33 33 33 34 34 34 35 35 36 37 38 38 39 39 40 41 41 42 42 42 42 42 42 43 43 44 44 44 44 44 44 44 44 45
31 32 32 32 32 33 33 32 32 32 32 32 32 33 34 35 36 36 37 37 38 38 39 40 40 41 41 41 42 42 43 43 43 43 43 44 44 44 43 43 44 44 44
33 33 32 32 32 33 32 32 32 32 31 31 31 32 33 34 35 36 37 38 38 39 39 39 40 40 40 41 42 42 42 42 41 41 41 42 42 42 42 43 43 43 43
34 34 34 34 33 33 32 31 31 31 31 31 32 33 34 35 36 37 38 38 39 39 39 39 40 40 40 40 40 40 40 40 39 39 39 40 40 40 41 41 42 41 42
35 36 36 35 34 33 32 32 32 32 32 32 32 33 34 35 36 37 37 38 38 39 39 39 39 39 38 38 38 37 37 38 38 38 38 38 38 39 40 40 40 40 40
36 36 36 35 34 34 34 34 33 33 33 33 33 34 34 34 35 36 37 38 38 38 38 38 38 37 37 37 37 37 37 37 37 37 36 36 37 38 39 40 40 40 40
36 36 35 34 34 34 34 33 33 33 33 33 33 33 33 34 34 35 36 37 37 37 37 37 37 36 36 36 36 36 36 35 35 35 35 36 37 38 39 40 40 40 39
36 35 34 34 34 34 33 33 33 33 33 33 33 33 33 34 34 35 36 36 37 37 37 36 35 35 35 35 35 35 35 35 35 35 36 36 38 39 39 40 40 39 39

GEFSMW_500_meanwind_186.txt.gz
Wind_Speed
30 30 29 30 31 32 32 33 33 33 33 33 33 33 33 34 34 34 34 34 33 34 34 34 34 35 35 36 36 37 37 38 38 38 38 39 39 40 40 41 41 42 43
29 29 29 29 30 30 31 31 32 32 32 32 32 33 34 34 34 35 35 35 35 35 35 34 34 35 36 36 37 37 38 38 39 39 40 40 40 41 41 41 42 42 43
28 28 28 29 29 30 30 31 31 32 32 32 32 33 34 35 36 35 35 35 35 36 36 36 36 36 36 37 38 38 39 39 40 40 41 41 41 41 42 43 44 44 45
28 29 29 29 29 29 30 31 31 32 33 34 34 34 35 36 37 37 36 36 36 36 38 37 37 37 38 39 39 39 40 40 40 41 42 42 42 42 42 43 44 44 44
27 27 28 29 29 30 30 31 31 33 34 35 35 35 36 37 37 37 37 37 37 37 38 39 40 39 39 39 40 41 41 41 41 41 41 42 42 43 43 42 42 43 43
26 27 27 28 29 30 31 31 32 33 34 34 36 36 36 37 37 36 37 38 38 39 40 40 40 40 41 41 42 42 42 42 42 42 41 42 42 42 42 42 42 42 42
26 27 28 28 29 30 31 32 33 33 34 34 35 36 36 38 38 38 38 39 40 40 41 42 42 43 43 43 42 42 42 41 41 41 41 42 42 42 42 42 42 41 42
26 27 28 29 30 31 31 32 33 34 34 35 36 37 37 38 39 40 40 40 42 42 42 43 43 43 44 43 42 42 41 41 41 41 41 41 42 42 42 42 42 41 41
27 28 28 29 30 31 32 32 33 34 35 36 37 37 38 38 39 40 41 41 43 44 45 45 44 43 43 43 43 42 42 42 41 41 41 42 42 42 42 42 42 42 42
27 29 30 30 31 32 32 32 33 34 35 35 36 38 39 40 40 40 41 42 43 44 44 44 44 43 42 42 42 42 42 41 41 41 41 42 42 43 43 43 43 43 43
27 28 30 30 31 32 32 32 33 33 34 34 36 38 39 41 42 42 43 44 44 43 43 42 42 42 43 42 42 42 42 41 41 41 41 42 42 43 43 43 43 44 44
28 29 29 30 31 32 33 34 34 34 35 36 37 38 39 41 42 43 44 44 44 43 42 42 43 43 43 43 43 43 43 43 42 43 43 44 44 44 44 44 44 44 45
27 28 30 31 32 33 33 34 35 36 36 36 37 38 39 40 41 42 43 44 44 44 44 43 43 43 43 43 44 44 44 44 44 45 45 45 45 45 45 45 46 46 46
27 28 29 30 31 32 33 33 34 35 36 36 36 37 38 39 40 42 43 43 43 43 43 43 43 43 43 44 44 44 44 45 46 46 46 46 45 45 45 45 46 47 47
27 28 29 30 31 32 32 33 34 34 35 37 37 38 38 39 40 41 42 42 42 42 42 42 42 42 42 43 43 44 44 45 46 46 46 46 46 46 46 46 46 47 47
28 29 30 31 31 32 33 34 35 35 36 37 38 39 39 40 40 40 41 41 41 41 41 41 41 41 42 43 43 44 45 46 46 46 46 45 46 46 46 46 46 47 47
30 31 32 32 33 34 34 35 36 37 37 38 38 39 40 40 40 40 40 40 39 40 40 40 41 41 42 43 43 44 44 44 44 44 45 45 45 45 45 45 46 46 47
32 32 33 34 34 35 36 36 37 37 38 38 38 39 39 39 40 40 40 39 39 40 40 41 41 42 43 43 43 43 43 43 44 44 44 44 44 44 44 45 45 46 47
34 34 35 36 36 37 37 37 38 38 38 38 38 39 39 39 39 39 39 39 39 40 40 41 42 42 42 43 42 42 42 42 42 42 43 43 43 44 45 45 45 45 46
36 36 37 37 38 38 38 38 38 39 39 39 39 39 39 38 38 38 38 39 39 39 40 40 40 41 41 41 41 41 41 40 40 41 42 42 43 43 44 44 44 44 44
38 38 38 38 39 39 40 39 40 40 40 40 39 39 38 38 39 38 38 38 38 38 38 39 39 39 39 40 40 40 40 40 40 40 40 41 41 42 42 42 42 43 43
39 39 40 40 40 41 41 41 41 41 40 39 38 38 38 37 37 37 37 38 38 38 38 38 38 38 39 39 39 39 39 39 39 39 40 40 40 40 40 40 41 42 42
40 40 41 41 41 41 42 41 41 40 39 38 38 38 37 37 37 37 37 37 37 38 38 38 38 38 39 39 39 39 39 39 39 39 39 39 40 39 39 39 40 40 41
40 41 41 41 41 41 41 40 40 39 38 38 38 38 37 37 36 36 37 37 37 38 38 38 38 38 39 39 38 38 38 38 38 39 39 39 39 39 39 39 40 39 39
40 41 41 41 41 40 39 39 39 39 38 38 38 37 37 37 37 37 37 37 37 37 37 37 37 37 37 37 37 38 37 38 38 38 38 38 39 39 39 39 39 38 38
40 40 40 40 39 38 38 38 39 39 38 37 37 36 37 37 37 36 36 36 37 37 37 37 37 36 36 36 37 37 37 38 38 37 37 37 38 38 37 37 37 37 37

GEFSMW_500_meanwind_192.txt.gz
Wind_Speed
29 29 30 32 32 33 34 34 34 34 34 35 36 35 35 34 34 33 34 34 33 33 33 33 33 33 34 34 35 35 35 35 35 35 35 36 37 37 38 38 38 39 40
28 29 29 29 30 31 32 34 33 33 34 35 36 36 35 34 34 35 34 35 35 35 34 34 34 34 35 35 36 36 36 36 37 37 37 38 38 38 39 39 39 40 41
27 28 28 28 29 30 31 32 32 32 33 34 36 36 36 36 35 35 35 36 36 36 36 35 36 36 36 37 37 37 37 37 38 39 39 39 39 39 39 39 40 40 41
26 27 27 28 29 30 31 32 32 33 34 35 36 37 37 38 37 37 37 37 38 38 38 37 37 37 37 38 38 39 39 39 40 40 41 41 41 40 40 40 40 40 41
26 26 27 28 29 30 31 32 32 32 33 34 35 36 37 38 38 39 39 39 38 39 39 38 38 38 38 39 39 40 40 41 42 42 42 41 41 41 41 40 40 40 41
25 26 27 28 29 29 30 31 32 32 33 34 35 36 37 38 38 39 39 39 39 39 39 39 39 39 40 40 41 42 42 43 43 43 42 42 42 42 42 42 42 42 42
24 25 25 26 27 28 29 30 31 32 33 33 34 35 36 37 37 38 39 39 39 39 39 40 40 40 41 42 43 43 43 44 44 44 44 44 44 44 44 43 43 43 42
23 24 24 25 26 27 28 30 31 31 32 33 34 35 36 36 36 37 38 39 40 40 41 42 42 42 43 43 43 44 44 44 45 45 45 45 45 45 45 45 44 44 43
23 24 25 25 26 28 29 30 31 32 32 33 34 35 35 35 36 36 37 38 39 41 42 43 43 44 44 44 44 44 44 45 46 46 46 46 47 47 47 47 46 46 45
24 25 26 27 28 29 29 30 31 32 32 33 33 34 35 35 36 36 37 38 39 41 42 43 44 45 45 45 45 45 46 47 47 47 48 48 49 49 49 49 48 47 47
25 27 28 29 30 31 31 31 31 31 32 33 34 35 36 36 37 38 39 39 39 40 42 44 45 46 46 46 46 46 48 48 48 48 48 48 49 49 49 49 49 49 49
26 27 29 30 30 31 31 31 32 32 33 34 35 36 37 37 37 38 38 39 39 41 42 43 45 46 47 47 47 47 48 48 47 47 48 49 49 49 49 50 50 50 50
26 27 28 30 30 31 31 32 33 34 34 35 36 37 37 37 37 37 38 39 40 41 42 43 44 45 46 47 47 47 47 47 47 47 47 48 48 48 49 49 50 51 51
27 28 29 29 30 31 32 33 34 35 35 36 37 37 37 38 38 38 39 40 41 42 42 43 44 44 45 46 46 45 45 45 45 45 45 46 47 48 48 49 50 51 51
28 28 29 30 31 32 33 34 35 35 36 36 37 37 38 39 39 40 40 41 42 42 43 43 44 44 44 45 45 44 44 44 44 44 44 45 46 46 47 48 48 49 49
29 29 30 30 31 33 33 34 35 36 36 36 37 38 38 39 40 41 41 41 42 43 43 44 44 44 43 43 43 43 43 44 44 44 44 44 44 45 45 46 47 47 47
30 31 31 32 33 33 34 35 36 36 37 37 38 38 39 40 41 41 41 42 42 43 43 44 43 42 41 41 42 42 42 42 42 42 42 42 42 42 43 44 44 45 46
32 32 33 33 34 34 35 36 37 37 38 38 39 39 40 41 41 42 42 42 42 42 42 42 42 42 41 41 41 41 42 41 41 41 41 42 42 42 42 43 43 44 44
33 33 34 34 35 36 36 37 38 38 39 40 40 40 40 41 41 42 42 41 41 41 41 41 41 41 41 41 41 41 41 41 41 41 41 41 41 42 42 42 41 41 42
34 34 35 35 36 37 37 38 38 39 40 40 40 40 40 40 40 40 40 40 40 40 40 41 40 40 40 40 40 40 40 40 40 40 40 40 40 40 40 39 39 40 40
35 35 35 36 37 37 37 38 38 39 39 39 39 39 40 40 40 40 40 40 39 40 40 40 39 39 39 39 39 40 40 39 39 39 39 39 39 39 39 39 39 39 39
36 36 37 37 37 38 38 38 38 39 39 39 39 39 39 39 39 39 39 40 40 40 39 39 39 39 39 39 39 39 38 38 37 37 38 38 38 38 38 38 38 39 39
37 38 38 38 38 38 38 38 38 39 39 38 39 39 38 38 38 38 38 39 39 39 39 38 38 38 38 38 38 38 37 37 37 37 37 37 37 37 38 38 38 39 39
37 37 38 38 38 38 38 38 38 39 39 38 38 38 38 38 38 38 38 38 38 37 37 37 37 37 37 37 37 37 36 36 36 36 36 37 37 37 37 38 38 38 39
37 38 38 38 38 38 38 39 39 39 39 38 38 37 37 37 37 37 37 37 37 37 36 36 37 36 36 36 36 36 35 35 35 35 36 36 36 36 37 37 38 38 38
38 38 38 38 38 38 38 39 39 39 39 38 38 37 37 37 37 37 36 36 36 36 36 36 36 35 35 35 35 35 34 34 34 34 35 35 35 35 36 36 36 37 37

GEFSMW_500_meanwind_198.txt.gz
Wind_Speed
27 28 30 30 30 31 32 33 35 35 36 37 37 37 37 37 36 37 37 37 37 38 38 38 36 36 36 37 36 37 36 36 36 36 37 36 36 36 37 37 38 38 38
27 29 30 29 31 31 31 32 34 35 35 36 36 37 36 36 37 37 38 38 38 38 38 38 37 37 38 36 36 36 37 37 37 37 37 37 37 38 38 39 39 39 39
26 28 29 29 30 30 30 31 32 34 35 36 36 36 36 37 37 38 39 39 38 39 40 39 39 39 39 38 37 37 38 38 38 39 39 39 38 39 39 40 40 40 40
25 27 28 29 30 30 31 31 31 32 34 35 36 36 36 37 38 39 39 40 39 39 40 40 40 40 40 39 38 38 39 39 40 41 41 41 41 40 40 40 41 41 41
24 25 27 28 29 30 31 31 31 32 33 34 35 35 37 38 38 38 37 39 40 40 40 40 41 40 40 40 39 39 40 40 40 41 42 42 43 43 42 42 42 43 43
23 24 26 28 28 29 30 31 31 33 34 34 35 35 36 37 37 38 38 39 40 40 40 41 41 41 41 41 41 41 41 41 42 42 42 43 44 44 44 44 44 44 44
23 25 25 27 28 28 29 30 31 32 33 34 35 36 36 37 37 38 39 39 39 40 41 42 42 43 43 42 43 43 43 43 43 44 45 45 45 45 45 46 46 45 45
23 23 25 26 27 28 28 29 30 31 32 34 35 35 37 37 38 39 39 40 39 40 41 42 42 43 43 43 44 45 45 45 45 46 46 47 47 46 47 47 48 47 47
23 23 24 25 26 28 29 30 31 31 32 33 34 35 36 37 37 38 39 39 39 39 40 41 42 42 43 44 45 45 46 46 46 47 47 47 47 47 48 48 48 48 48
24 25 26 26 27 28 29 30 31 32 33 34 35 36 37 37 38 38 38 38 39 40 41 41 42 43 43 44 45 46 46 47 47 48 48 48 48 48 48 48 48 48 49
26 27 27 27 28 29 30 31 32 33 33 34 35 36 37 37 38 39 39 40 40 41 41 41 42 43 44 44 45 46 47 47 48 49 49 49 49 49 49 49 48 49 49
28 29 29 29 30 30 31 32 33 34 34 35 35 36 37 38 39 40 41 41 42 43 43 44 43 44 44 45 46 46 47 48 49 49 49 50 50 50 50 49 49 49 50
29 30 31 31 32 32 33 33 33 34 34 35 36 37 38 39 40 41 42 42 42 43 44 45 45 45 45 46 47 47 48 49 49 50 50 50 50 50 50 50 50 50 50
30 31 31 32 33 33 34 34 34 34 35 36 37 37 38 39 40 41 42 42 42 43 44 45 45 45 46 46 46 47 47 48 49 50 50 49 48 49 49 50 50 50 50
31 32 32 33 33 34 35 35 35 35 36 36 37 38 39 39 40 41 41 42 42 43 44 45 46 46 46 47 47 47 47 48 48 49 48 49 49 49 48 49 49 49 48
32 33 33 32 33 34 34 35 36 36 36 37 37 39 39 40 41 41 42 43 43 44 44 44 45 46 46 46 47 47 47 47 47 47 48 48 48 48 47 47 47 47 47
32 33 33 33 34 34 35 36 36 37 37 38 38 39 40 40 41 42 42 43 43 43 44 44 44 45 46 46 46 46 46 46 46 46 46 46 46 45 45 45 45 46 46
34 34 34 35 36 36 36 37 37 37 38 39 39 39 40 41 41 41 42 42 43 44 44 44 44 45 45 45 46 46 45 45 45 44 44 44 44 45 44 44 44 44 44
35 35 36 36 37 37 37 38 38 38 39 40 40 41 41 41 41 42 42 42 42 43 44 44 44 44 44 45 45 44 44 43 43 43 43 44 43 43 43 43 43 43 43
36 36 37 37 38 38 39 39 39 40 40 41 41 41 41 42 42 42 42 42 42 42 42 42 42 43 43 43 43 43 43 42 41 42 42 42 42 42 43 43 42 42 42
36 36 37 38 38 39 40 40 40 41 42 42 42 41 41 41 41 41 42 42 41 41 41 41 41 41 42 43 43 42 41 41 41 42 42 41 41 41 42 42 42 42 42
37 37 37 38 38 39 40 40 41 41 42 41 41 41 41 41 41 41 41 41 41 41 41 41 41 41 41 41 41 41 41 40 40 40 40 40 40 41 41 42 42 41 41
38 38 38 38 39 39 39 40 40 41 40 40 40 40 40 40 41 41 40 40 40 41 41 41 41 41 40 40 40 40 39 39 39 39 39 39 39 40 41 41 41 40 40
39 39 39 39 39 40 40 40 40 41 41 41 40 40 40 41 40 40 41 41 41 40 41 41 41 40 40 40 39 39 39 39 38 38 37 38 38 38 38 39 39 38 38
40 40 39 39 39 39 39 40 41 41 41 41 41 41 40 40 40 40 40 40 40 40 40 41 40 40 39 39 39 38 38 37 37 37 37 37 37 37 37 37 37 36 36
41 41 40 39 39 39 39 40 41 41 41 40 40 40 40 40 40 40 39 39 40 40 40 40 40 40 39 38 38 37 37 36 36 36 35 35 35 34 34 34 34 34 34

GEFSMW_500_meanwind_204.txt.gz
Wind_Speed
23 25 26 28 29 29 30 31 33 33 33 33 34 33 34 35 36 36 37 38 38 38 38 37 38 39 39 39 38 38 37 37 38 38 38 38 39 39 39 39 39 39 39
21 23 25 25 26 27 29 31 31 32 32 32 33 33 33 35 35 36 36 37 38 39 39 39 39 38 38 39 39 39 37 38 38 38 38 38 39 40 40 40 40 41 41
22 22 24 25 26 27 28 29 29 31 32 33 33 33 33 35 36 37 37 37 38 39 39 40 39 39 40 40 40 39 38 38 38 38 38 38 39 39 40 40 41 41 42
23 23 24 24 24 26 28 29 29 30 31 33 34 34 33 34 35 36 37 38 39 40 40 40 40 40 40 41 41 41 41 40 40 40 40 40 40 40 40 40 41 42 43
22 24 23 23 24 26 26 27 28 29 31 32 33 33 33 34 35 36 37 38 38 39 40 40 41 41 40 41 42 43 43 42 42 41 42 43 43 43 43 42 42 43 43
21 23 24 24 25 25 26 27 27 28 30 32 33 33 33 34 35 35 36 37 38 39 40 40 40 41 41 42 42 43 43 43 42 42 42 43 44 44 44 44 43 43 44
20 21 23 24 25 25 26 27 27 28 30 31 31 32 34 34 35 36 36 37 38 39 40 40 40 40 41 42 43 43 43 44 44 43 43 44 45 45 46 46 45 45 45
20 20 21 23 23 24 25 26 27 29 30 31 31 32 33 34 35 36 37 38 39 39 40 40 40 41 42 43 43 43 44 45 45 45 45 45 46 46 46 47 47 47 47
20 20 21 22 23 23 25 26 27 28 30 31 31 32 32 33 34 36 37 38 39 40 40 41 41 42 42 43 44 43 44 45 45 46 46 46 46 47 47 48 48 49 48
22 22 22 22 24 25 27 27 28 28 30 32 32 32 33 34 35 36 37 37 38 39 40 40 40 41 42 43 43 44 44 44 45 46 47 47 47 48 48 48 49 49 50
24 23 24 24 25 27 28 28 29 30 31 32 33 33 34 34 34 35 36 37 38 38 39 40 41 42 42 42 43 44 45 46 46 47 47 47 48 48 49 49 49 50 50
25 25 25 26 26 27 28 29 30 31 32 33 33 34 35 35 35 35 36 37 38 39 40 41 42 43 43 44 45 45 46 46 46 47 47 48 49 49 49 50 50 50 51
27 27 27 28 28 28 29 30 30 31 32 33 34 35 36 36 36 36 37 38 39 39 40 41 42 43 44 44 45 45 45 45 46 47 48 49 50 50 50 50 50 50 50
29 29 30 30 30 30 30 31 32 33 34 35 36 36 37 37 38 38 39 40 40 40 41 42 42 43 44 45 45 45 46 46 47 48 49 49 50 51 50 50 50 50 49
31 31 32 32 32 32 32 33 34 35 36 37 37 38 38 39 39 40 40 40 41 42 42 43 43 44 45 45 45 46 46 46 47 49 49 50 50 50 51 50 50 49 49
32 33 33 34 33 33 34 34 35 35 36 37 39 40 40 41 41 41 41 42 42 43 43 43 43 43 44 45 45 46 46 46 47 47 48 49 49 49 49 50 50 49 49
34 35 35 35 35 35 35 35 35 36 37 38 39 40 41 42 43 43 43 43 42 42 42 42 42 43 43 44 44 45 45 45 46 47 47 47 48 48 48 48 48 48 48
36 36 36 36 36 36 36 36 36 37 38 38 39 41 42 42 43 43 43 43 42 42 42 42 43 43 43 43 44 44 45 45 45 45 45 45 45 45 45 45 46 46 46
36 36 36 37 37 37 38 38 38 38 39 40 40 41 42 43 43 43 43 43 43 42 42 42 43 42 42 42 43 44 44 44 44 44 43 43 43 43 44 44 44 45 45
38 38 37 38 38 38 39 39 39 39 39 40 41 42 43 43 43 42 42 43 43 43 43 42 42 43 42 43 43 44 44 44 43 43 43 43 42 42 43 43 44 44 44
39 39 38 38 39 39 40 40 40 40 41 41 41 42 42 43 42 42 42 43 43 43 43 43 43 43 43 43 44 44 44 44 43 43 42 42 42 42 42 42 42 42 42
40 40 40 40 40 40 40 40 41 41 42 42 41 41 41 41 41 41 42 42 43 43 43 43 43 43 44 44 44 45 44 44 43 42 41 41 41 42 42 41 42 42 42
40 41 40 40 40 40 40 41 41 41 41 41 40 40 40 40 41 42 42 42 42 42 42 42 42 42 43 43 44 44 44 44 43 42 42 41 42 42 41 41 41 41 41
40 40 40 40 40 40 41 41 41 41 40 39 39 39 40 40 40 41 41 41 41 42 42 42 42 42 42 42 43 42 42 42 42 41 41 41 41 40 40 40 40 40 39
40 40 40 40 40 39 39 39 39 39 39 39 40 40 39 39 39 39 39 40 40 41 41 41 41 40 40 40 40 39 39 40 40 40 40 40 40 39 39 39 39 38 37
40 40 40 39 39 38 38 38 38 38 38 39 39 39 39 39 39 38 38 39 39 39 39 39 39 38 38 38 38 38 38 39 39 38 38 38 38 37 37 37 37 36 35

GEFSMW_500_meanwind_210.txt.gz
Wind_Speed
25 26 26 26 26 28 30 30 30 32 34 34 35 34 36 36 36 35 35 35 36 37 37 37 37 38 39 39 39 39 39 39 40 40 39 39 38 38 38 38 39 39 39
24 25 25 24 24 26 27 29 29 31 32 35 35 34 36 36 36 35 34 35 36 37 38 38 39 39 39 39 40 40 40 40 39 39 39 39 39 39 39 39 40 40 41
23 24 24 26 26 26 27 29 30 30 32 35 36 35 36 36 35 35 35 35 35 37 39 40 40 40 40 40 40 40 40 39 39 39 39 39 39 39 39 40 41 42 42
23 24 24 25 26 26 27 29 29 30 32 34 35 36 36 36 36 35 35 35 36 37 39 40 40 40 40 39 39 39 40 39 38 38 39 39 39 39 40 41 42 42 43
22 23 23 24 25 26 27 28 29 29 31 33 34 36 37 36 35 36 36 36 37 37 38 40 41 41 40 40 40 40 41 40 39 40 40 40 40 39 40 41 42 42 43
22 23 22 23 25 25 27 28 29 30 31 33 35 36 36 36 36 36 37 37 37 37 38 40 40 40 40 41 41 41 41 42 42 42 43 43 43 42 43 43 43 43 44
23 24 24 24 25 26 27 27 27 29 30 32 34 36 36 36 36 35 36 37 37 38 38 39 39 40 41 41 41 41 42 43 43 44 44 46 46 45 44 44 45 45 46
22 24 24 25 26 27 27 28 28 29 30 31 32 35 35 36 37 36 36 37 37 38 37 38 39 39 40 41 41 41 42 43 43 44 44 46 46 46 45 45 46 46 47
23 23 24 25 25 26 27 28 28 29 30 32 33 34 35 37 37 37 37 36 36 36 37 37 38 40 40 41 41 42 42 43 44 44 44 45 46 47 47 47 47 47 47
24 24 25 26 26 26 26 27 28 29 31 32 34 35 35 35 36 37 36 35 35 37 38 38 39 40 41 42 43 43 44 44 45 45 46 46 46 47 49 49 49 49 49
26 26 26 27 27 27 27 28 28 29 31 32 32 34 34 35 35 36 36 36 37 38 39 40 40 41 43 44 44 45 45 45 45 46 47 47 48 48 49 49 50 51 51
28 28 28 28 29 28 29 30 30 30 31 32 32 33 33 34 35 36 37 38 39 40 41 41 42 43 44 45 45 46 46 47 47 47 47 48 48 49 49 50 51 52 52
30 29 29 30 31 30 29 30 31 31 32 33 33 34 34 35 37 37 38 39 39 40 41 41 42 42 43 45 46 46 46 46 47 47 47 48 49 49 49 50 51 52 53
31 31 31 31 31 31 31 32 32 33 33 34 35 35 36 37 38 38 38 39 40 40 40 41 42 43 43 45 46 46 46 47 47 47 48 49 49 49 49 51 51 52 52
32 33 33 33 33 33 33 34 34 34 35 36 37 37 38 38 39 39 39 39 40 41 42 43 43 44 45 45 45 45 46 46 46 47 48 48 48 49 49 50 50 50 51
34 34 34 35 35 35 36 35 35 36 37 38 39 39 39 39 40 40 41 41 42 43 44 44 44 44 44 45 45 45 44 45 45 46 46 47 47 48 49 49 49 49 50
35 35 35 36 37 37 37 37 37 38 39 40 41 41 41 41 42 42 43 44 44 44 44 45 45 45 45 45 44 44 44 44 44 45 46 46 47 48 48 48 48 48 48
36 37 37 37 38 38 39 39 39 40 41 41 42 42 42 43 43 44 45 46 46 46 46 46 46 46 46 45 44 44 43 43 44 45 46 46 47 47 48 48 48 47 47
37 37 38 38 39 39 40 40 40 41 41 42 43 43 43 43 44 45 46 46 47 47 46 46 46 46 45 45 45 44 44 44 45 45 46 47 46 47 47 47 47 47 46
38 39 39 39 39 40 40 40 40 41 41 42 42 43 43 43 44 44 45 45 46 46 47 47 47 46 45 45 45 45 44 45 45 45 45 46 46 46 46 47 47 46 45
39 40 40 40 39 40 40 41 41 41 41 41 41 42 42 43 43 43 43 43 44 45 46 46 46 46 45 45 46 45 45 45 45 45 45 46 46 46 46 46 45 44 43
40 40 40 40 40 40 41 41 41 41 41 41 41 41 42 42 42 42 42 43 44 44 45 45 45 45 45 45 45 45 45 44 45 45 45 45 45 45 45 45 45 44 42
40 40 40 41 41 41 41 41 41 41 41 41 41 41 41 41 41 42 42 43 43 43 44 44 44 44 44 44 44 44 43 43 44 44 44 44 43 43 43 44 43 42 42
41 40 40 41 41 41 41 41 41 41 41 41 41 41 41 41 41 42 42 43 43 43 42 42 42 42 42 42 43 43 42 42 42 42 42 42 42 42 41 41 41 41 41
40 40 40 40 41 41 41 41 41 41 40 40 40 39 39 40 40 41 41 42 42 42 41 40 41 41 41 41 41 41 41 41 41 40 40 40 40 40 40 39 39 39 39
40 40 40 40 40 40 41 41 41 40 40 40 39 39 39 40 40 40 40 40 40 40 40 39 39 39 39 39 39 39 38 38 38 37 37 37 37 38 38 37 37 37 38

GEFSMW_500_meanwind_216.txt.gz
Wind_Speed
26 26 26 26 27 28 28 28 29 32 33 34 35 35 35 37 38 38 37 38 40 40 38 38 37 36 36 37 37 37 38 38 39 39 39 39 40 39 40 39 39 39 39
25 25 25 26 25 25 26 26 27 29 31 33 34 34 35 35 36 37 37 37 38 39 38 38 37 37 37 38 39 39 39 39 39 40 40 40 41 41 41 41 40 41 40
24 24 24 24 24 24 24 25 27 28 30 31 33 33 34 35 35 37 37 38 37 38 39 39 38 38 38 39 40 40 40 40 40 41 42 42 42 43 42 41 41 41 41
23 24 24 23 22 22 23 23 26 27 28 30 33 34 34 34 35 37 38 38 38 38 40 40 39 38 39 39 40 40 40 41 42 43 43 43 43 43 43 42 43 43 43
22 23 24 23 22 23 23 24 26 27 29 30 33 33 33 34 35 37 38 38 37 37 39 40 39 39 39 39 40 41 42 42 42 42 42 42 43 43 44 43 43 44 44
23 24 24 23 23 23 24 24 25 27 28 29 31 32 33 34 34 35 37 37 36 38 38 40 40 40 40 40 40 41 42 42 42 42 42 42 43 44 44 45 44 45 45
23 23 24 23 23 23 23 24 25 26 28 29 30 32 33 34 35 36 36 36 36 36 38 39 40 40 41 41 41 42 42 44 44 45 45 44 44 45 46 47 47 47 47
23 24 23 23 22 22 23 24 25 26 28 29 31 32 33 34 35 36 37 37 37 37 38 38 40 41 41 42 43 43 44 45 45 45 46 47 47 47 47 48 48 48 47
24 24 24 23 23 23 24 25 25 25 28 30 31 32 33 35 35 36 37 38 38 39 39 39 40 41 41 42 43 44 45 45 46 46 47 48 48 49 49 49 49 49 49
24 24 24 24 24 24 25 25 25 26 28 30 31 32 33 34 36 37 38 38 38 38 39 39 41 42 43 43 43 45 46 46 46 47 48 49 49 49 49 49 50 50 51
24 24 24 24 25 25 24 25 26 27 29 30 31 32 33 34 35 37 38 39 40 41 41 41 41 42 44 45 46 46 46 46 47 47 48 49 49 49 49 49 50 50 51
25 25 26 25 25 25 25 26 27 28 29 30 31 32 33 34 35 37 38 39 41 41 41 42 42 43 44 45 46 47 47 47 47 48 48 48 49 49 49 49 50 50 50
26 26 26 26 27 27 27 27 28 28 29 29 30 32 33 34 35 37 38 39 40 41 41 43 44 44 45 46 46 47 48 48 48 48 48 48 48 48 48 50 50 50 50
27 27 27 28 28 28 28 28 29 30 30 31 31 32 33 34 35 37 38 39 40 41 41 43 44 45 45 47 48 49 48 48 47 47 47 47 47 47 48 48 48 48 48
27 27 28 29 29 29 29 30 30 31 31 32 32 33 34 35 35 37 38 39 40 41 42 43 44 45 46 47 47 48 47 46 46 47 47 47 47 47 47 46 47 47 47
29 30 30 30 31 31 31 32 32 32 32 33 34 35 35 36 37 38 38 39 40 41 42 43 44 45 46 46 46 46 47 47 47 47 47 47 46 46 46 46 46 46 47
31 31 31 32 33 33 33 33 33 34 34 35 35 35 36 37 38 38 39 40 41 41 41 42 43 44 45 46 45 45 46 46 47 46 46 46 46 46 46 45 45 45 45
32 32 32 33 33 34 34 35 35 35 35 36 37 37 37 38 38 38 39 40 40 41 41 42 43 44 44 45 45 45 46 46 46 46 46 46 46 46 45 44 44 44 45
32 32 32 33 33 34 34 35 35 36 36 37 38 38 38 38 39 39 39 40 40 41 42 44 45 45 45 45 45 46 46 46 46 46 46 45 45 45 44 44 44 44 44
33 33 33 33 33 33 34 35 36 36 37 37 38 38 39 39 40 40 40 41 42 43 44 44 45 45 45 45 45 45 45 44 44 44 44 44 44 44 43 43 43 44 44
34 34 34 34 34 34 35 35 36 36 37 37 38 39 39 40 41 41 42 43 43 43 44 44 44 45 45 44 43 43 43 43 43 43 43 42 42 42 42 42 42 42 43
35 35 35 35 36 36 36 36 37 37 37 38 38 39 40 41 42 42 42 42 43 43 43 44 43 43 43 42 41 41 42 41 41 41 41 41 41 41 42 42 42 42 43
35 35 36 36 36 36 36 37 37 37 38 38 39 40 40 40 41 41 42 42 42 43 43 42 42 41 40 39 39 39 39 40 40 40 40 40 40 40 40 40 41 41 41
35 35 36 36 36 36 36 37 37 37 38 38 38 39 39 39 40 40 41 42 42 41 41 40 39 39 38 37 38 38 38 38 38 38 38 38 38 39 38 38 39 39 39
36 36 37 37 37 37 37 37 37 38 38 38 38 38 39 40 40 40 41 41 41 40 39 39 38 37 37 37 37 37 37 37 37 37 36 37 37 37 37 37 37 37 37
36 36 37 37 37 38 38 38 38 38 38 38 38 39 39 39 40 40 39 39 39 38 38 37 37 36 36 36 36 36 36 36 36 36 36 35 36 36 36 36 35 35 35

GEFSMW_500_meanwind_222.txt.gz
Wind_Speed
29 30 31 31 32 32 31 32 33 35 35 35 34 34 34 35 36 36 37 38 40 39 40 40 41 41 41 39 38 38 38 38 37 37 37 36 36 35 35 35 36 36 36
29 29 30 31 31 31 31 32 32 34 34 33 33 33 33 33 34 35 37 37 39 39 40 41 41 41 42 41 39 38 39 38 38 38 38 37 37 37 37 37 37 38 38
29 29 30 30 30 30 30 31 31 33 33 33 33 33 33 34 34 35 36 37 39 38 39 40 41 41 41 41 40 39 40 39 39 40 40 39 38 38 38 39 39 40 40
28 28 28 28 28 29 29 29 30 31 31 33 34 33 32 33 34 36 37 37 37 37 38 39 40 40 40 40 40 41 41 40 41 41 41 41 41 40 39 40 41 42 43
27 27 29 29 28 29 29 29 30 31 31 31 32 32 32 32 33 35 36 37 36 37 38 39 40 40 40 39 40 40 41 41 42 42 41 41 41 42 42 42 42 43 44
26 27 28 29 28 28 29 29 29 30 31 31 31 31 32 33 33 33 35 35 35 37 37 39 39 40 41 40 40 40 40 41 43 43 43 44 44 43 44 44 44 45 45
26 26 27 27 27 28 28 28 29 29 30 30 30 31 30 31 33 33 33 35 36 37 38 40 40 41 41 41 41 41 41 42 43 44 45 46 46 45 46 46 46 47 47
26 26 27 27 27 27 27 28 29 29 29 30 30 31 30 30 32 33 34 34 36 37 38 40 41 41 42 42 40 41 42 44 45 45 45 46 47 47 47 48 48 49 49
26 26 27 27 27 27 27 28 28 28 29 30 31 31 32 32 32 33 34 35 35 37 39 40 40 41 42 42 41 41 42 43 45 46 46 47 47 48 49 49 50 51 52
27 27 28 28 28 28 28 28 28 28 29 30 31 31 31 31 32 33 35 35 35 37 39 40 40 41 42 43 42 41 41 43 45 47 47 48 48 49 49 50 51 52 52
28 29 29 29 29 29 28 28 28 27 28 29 29 30 31 32 33 33 34 35 35 37 38 39 40 41 42 42 43 44 44 44 45 47 48 49 49 50 51 52 52 52 53
29 29 29 29 29 29 28 28 28 27 28 28 30 31 32 33 33 33 34 34 35 37 38 39 40 41 41 42 43 44 44 44 45 47 47 48 49 50 51 52 53 53 53
30 29 29 29 29 28 28 27 27 27 27 28 30 31 33 33 33 34 34 35 36 37 38 38 39 40 41 43 44 45 46 46 46 47 47 48 49 50 51 52 52 52 53
30 30 29 29 29 29 28 28 28 28 29 29 30 31 32 33 33 33 34 35 36 37 37 38 40 41 42 44 45 46 46 45 45 46 47 48 49 49 50 51 51 52 52
31 30 30 30 30 31 30 30 30 30 30 30 30 30 31 32 33 34 35 37 37 38 39 40 41 42 42 43 43 45 46 46 46 47 47 48 49 49 50 50 50 51 51
32 31 30 30 31 31 31 32 32 31 31 31 31 31 32 33 34 35 36 37 37 38 39 40 41 41 42 43 44 44 45 46 46 47 47 48 49 49 50 49 49 49 47
31 31 30 31 31 31 31 31 32 32 32 32 33 34 34 34 35 36 36 37 37 38 39 40 41 41 42 43 44 44 45 46 46 47 47 48 49 49 49 48 47 47 46
31 31 31 31 31 31 31 31 32 33 33 34 34 34 34 34 35 37 38 38 39 39 40 40 40 40 41 43 44 44 45 45 46 46 47 47 47 48 47 46 46 46 45
31 32 32 32 31 31 31 32 32 34 34 34 35 35 35 36 37 38 38 39 39 39 39 40 40 40 41 42 43 43 45 45 45 45 45 45 45 44 45 44 44 44 44
32 32 32 32 32 32 32 33 33 34 34 34 35 36 37 38 38 39 39 39 39 39 39 39 40 41 42 42 42 43 43 44 44 43 43 43 43 42 42 42 42 42 41
34 33 33 33 33 34 34 34 34 35 35 35 36 37 38 38 38 39 39 39 39 39 39 39 40 41 41 42 42 42 43 43 42 42 42 41 41 41 41 41 41 40 40
34 34 34 34 35 35 35 35 35 35 36 36 36 37 37 38 38 38 38 38 38 39 39 39 40 40 41 42 42 42 41 41 41 40 40 40 40 40 40 39 39 39 39
36 35 35 35 35 35 35 35 35 36 36 36 37 37 37 37 38 38 38 38 39 39 39 40 40 41 41 41 41 40 40 39 39 39 39 39 39 38 38 38 38 39 39
36 36 36 36 36 36 36 36 36 36 37 37 37 37 37 38 38 39 39 38 39 39 40 40 41 41 41 40 39 39 38 38 38 38 38 37 37 37 37 37 38 38 38
35 36 36 36 36 36 36 36 36 37 37 37 37 38 38 38 39 39 39 39 39 40 40 41 41 40 39 38 38 37 37 37 36 36 36 36 36 36 36 36 36 36 36
36 36 36 36 36 37 37 37 37 37 37 37 38 38 38 38 39 39 39 39 39 40 40 40 39 37 37 36 36 36 35 35 35 35 35 35 35 35 34 34 34 35 35

GEFSMW_500_meanwind_228.txt.gz
Wind_Speed
33 33 32 31 31 32 32 33 33 34 35 35 36 37 37 37 37 37 37 38 38 39 39 39 39 40 40 41 41 42 42 42 41 40 40 40 39 38 38 39 38 37 37
32 32 32 31 31 32 32 32 33 34 34 35 35 35 35 35 35 36 37 38 39 39 38 39 39 40 41 41 41 42 42 43 42 42 41 40 39 39 40 40 40 39 38
30 30 31 31 32 32 32 33 33 33 34 35 34 34 35 34 35 36 35 37 38 38 38 39 39 40 41 41 41 42 43 43 43 43 43 42 42 41 40 41 42 41 41
29 30 30 31 31 32 33 32 31 32 33 34 34 33 33 34 35 35 36 36 36 37 38 39 40 40 40 41 41 41 42 43 43 43 43 44 43 43 42 42 43 43 43
30 31 30 30 31 31 32 32 31 32 32 33 33 34 32 33 33 34 36 36 36 37 38 39 39 40 41 41 41 41 41 43 43 43 43 44 43 44 45 44 45 45 45
30 31 30 30 31 31 31 32 31 31 31 32 32 33 32 32 32 34 35 36 36 36 37 38 40 41 41 41 41 41 42 42 42 42 43 44 44 45 46 47 47 47 47
29 29 30 30 31 31 32 32 31 31 31 32 32 32 32 31 31 33 34 35 34 34 35 38 40 40 41 42 41 42 43 42 42 42 43 44 44 46 47 48 49 50 50
29 29 29 30 30 30 31 32 31 30 31 32 32 32 32 32 31 32 33 34 35 33 34 36 37 38 39 41 41 41 42 43 44 44 45 45 45 46 48 49 49 51 51
29 29 29 30 29 29 30 31 30 30 30 31 31 31 31 31 31 31 31 32 34 34 34 33 35 38 39 40 41 42 42 43 43 44 44 45 46 47 48 49 50 51 51
28 28 28 28 28 29 29 29 28 28 28 29 29 29 30 30 30 30 30 30 32 34 35 35 35 37 38 39 40 42 42 42 43 44 45 46 46 47 48 49 50 51 53
28 28 28 28 28 28 28 28 28 28 29 29 29 29 29 29 30 30 30 30 31 32 33 34 34 36 39 40 41 42 42 43 43 44 45 46 48 48 49 49 50 50 52
28 28 29 29 29 28 28 28 28 29 29 29 29 30 30 29 30 30 31 31 31 32 33 34 34 35 37 40 41 42 43 43 43 43 44 45 47 48 49 49 49 50 51
29 29 29 29 29 29 29 29 29 29 29 29 30 30 29 29 30 31 32 32 32 33 33 34 35 35 36 38 40 41 42 42 43 44 44 44 45 46 48 49 50 50 51
30 29 29 29 29 29 29 29 29 29 29 30 30 30 30 30 30 31 31 32 33 33 34 34 35 36 37 38 40 41 42 41 42 42 43 44 45 46 48 48 49 50 50
29 29 28 28 28 28 28 28 28 29 29 30 31 32 31 31 31 32 32 32 33 34 34 35 36 37 37 38 39 39 40 41 43 42 42 43 44 45 47 48 48 48 49
30 29 28 28 28 28 28 28 28 28 29 30 30 30 32 32 32 32 33 33 34 35 35 36 37 38 38 38 39 40 41 42 42 42 42 43 44 45 47 47 47 47 48
30 30 29 29 29 29 29 29 28 29 29 29 30 30 31 32 33 33 34 34 35 35 36 36 36 37 38 38 39 40 40 41 42 42 42 43 45 46 46 45 46 46 46
30 30 30 29 29 29 29 29 29 29 29 29 30 31 32 32 33 34 35 35 35 36 36 37 37 37 38 39 39 40 40 42 42 42 42 43 44 44 44 45 45 44 44
30 31 30 30 30 30 30 30 30 30 30 30 31 31 32 32 33 34 34 35 36 37 38 38 38 38 39 39 40 40 41 41 42 43 43 43 43 43 44 45 44 43 43
32 31 31 31 31 31 31 31 31 31 31 31 31 31 32 33 34 34 35 36 37 38 38 37 37 38 39 38 39 40 40 40 41 41 41 41 42 42 43 43 42 41 41
33 32 32 32 32 32 31 31 31 31 31 32 32 32 32 33 34 35 35 36 37 37 37 37 37 38 38 38 39 39 39 40 40 40 40 40 40 41 41 41 40 40 40
34 34 33 33 33 33 32 32 32 32 32 32 32 33 33 34 34 35 35 35 36 36 37 37 36 37 37 38 38 39 38 38 39 39 39 39 39 39 39 39 39 39 39
33 33 33 33 33 33 33 33 32 32 33 33 33 33 34 34 34 34 35 35 35 35 36 36 36 36 37 37 38 37 37 37 38 39 39 39 38 38 38 38 38 39 39
33 33 33 33 32 32 32 33 33 33 33 34 34 34 34 34 34 34 34 34 34 35 36 36 36 36 36 36 36 36 37 37 38 39 38 37 37 38 38 38 38 38 38
32 33 34 34 34 33 33 33 33 33 33 34 34 34 34 34 34 34 35 35 35 35 36 36 36 36 36 36 37 38 38 38 39 38 37 37 37 38 38 38 38 38 38
31 32 32 33 33 33 33 33 33 33 33 34 34 34 34 34 34 34 34 35 36 36 36 36 36 36 37 37 38 38 38 38 38 38 37 37 37 37 38 38 38 38 38

GEFSMW_500_meanwind_234.txt.gz
Wind_Speed
35 36 35 36 35 34 35 34 34 34 34 35 35 35 35 36 36 35 35 36 36 37 38 39 40 40 41 41 41 41 40 40 40 41 41 40 39 39 38 38 38 37 37
36 35 35 35 35 34 34 35 34 34 34 35 36 36 36 36 36 37 36 36 37 38 39 39 40 41 42 42 42 42 41 41 41 41 41 41 40 40 40 39 39 39 39
36 36 35 35 34 34 34 35 35 35 35 35 35 36 37 37 37 38 38 37 38 38 39 39 39 40 41 42 42 42 42 42 42 42 43 43 43 41 40 41 41 41 41
36 35 35 35 35 35 35 36 35 36 36 36 35 35 36 37 38 38 38 38 38 38 39 39 40 40 40 41 41 41 42 43 43 44 44 44 44 43 42 41 42 42 43
37 36 36 35 35 35 36 36 36 36 36 36 36 36 36 36 37 37 38 38 38 39 39 39 40 41 41 41 41 42 43 44 45 45 45 44 45 44 44 44 43 43 44
38 37 36 35 35 36 36 36 37 37 37 37 36 36 36 36 37 37 37 37 38 39 39 40 40 41 41 42 43 43 44 44 45 46 46 46 45 45 45 45 45 45 45
38 37 36 36 36 36 36 36 36 36 36 36 36 36 36 37 37 37 37 37 37 38 39 39 40 41 42 43 43 42 43 44 45 46 46 46 47 47 47 46 47 47 47
36 37 36 36 37 37 37 37 36 36 36 36 36 36 36 37 37 38 37 37 38 38 39 39 39 39 41 42 42 42 42 42 43 45 46 46 47 47 47 47 47 48 48
35 36 36 36 36 36 36 36 37 36 36 36 36 36 37 37 37 38 38 38 38 38 38 38 38 38 39 40 41 41 41 42 43 43 45 46 47 47 48 48 48 49 49
34 34 35 35 34 34 35 35 35 35 36 36 37 37 38 38 38 38 38 36 36 37 37 37 36 37 38 39 39 39 40 41 42 43 44 45 46 47 48 48 49 50 50
35 35 35 34 34 34 34 34 34 35 35 35 36 36 37 37 37 36 36 36 34 35 35 35 36 37 38 38 38 38 40 41 42 44 45 45 45 46 47 49 50 51 51
34 34 34 33 33 33 33 33 34 34 35 35 35 36 36 36 36 35 35 35 34 34 34 35 35 36 36 37 37 38 39 40 41 42 44 45 45 45 46 47 48 50 51
33 32 33 33 33 33 33 33 33 33 34 34 34 35 35 34 34 33 34 34 33 33 33 34 35 35 36 36 36 37 38 39 40 42 44 45 46 46 46 47 48 49 51
33 32 32 33 34 34 33 33 33 33 32 32 31 32 32 32 31 32 33 32 33 34 34 34 34 35 35 35 36 37 38 39 40 40 41 43 44 45 46 47 48 48 49
34 34 33 33 34 34 34 33 33 33 32 32 31 31 31 32 31 32 33 33 34 34 35 35 35 35 35 36 36 37 38 38 38 39 40 41 43 45 45 45 45 46 48
33 33 34 34 33 33 33 33 33 33 32 32 32 31 31 32 33 33 33 34 35 35 35 35 36 35 36 37 38 38 38 39 39 40 40 41 42 43 44 45 45 46 48
32 33 33 33 33 32 33 32 32 33 33 32 32 32 32 32 34 34 33 33 34 35 36 36 36 36 36 37 38 39 39 39 39 40 40 41 42 43 44 44 45 47 48
32 33 33 32 33 33 33 33 32 32 32 32 32 32 32 33 34 34 34 34 34 35 36 37 37 37 37 38 38 38 38 39 39 39 40 40 42 43 44 45 45 45 46
32 32 32 32 33 33 33 33 33 32 32 32 33 33 33 33 34 35 35 35 35 35 36 37 37 38 38 39 38 38 38 38 39 40 40 41 42 43 44 45 44 43 43
33 32 32 32 32 32 32 32 33 33 33 33 33 33 33 33 34 35 36 36 36 36 36 35 36 37 38 38 38 38 37 38 39 40 40 41 42 43 43 43 42 41 41
32 32 32 32 33 33 33 32 32 32 32 32 33 33 33 32 33 33 34 35 36 37 36 36 36 36 37 37 37 38 38 38 38 39 39 40 40 40 40 40 39 39 38
31 32 32 32 33 33 33 33 33 32 32 32 32 32 33 33 32 32 33 34 34 35 35 36 36 36 36 36 37 38 39 39 39 38 38 38 37 38 37 37 37 37 38
30 31 31 31 31 32 32 32 33 32 31 31 31 32 32 32 32 33 33 34 34 34 35 35 35 35 36 36 37 37 38 38 38 37 37 36 36 36 36 36 36 37 37
29 29 29 30 30 30 31 32 32 32 31 32 32 32 32 32 33 33 33 33 34 33 34 34 35 36 36 37 37 37 37 36 36 37 36 36 36 36 37 37 37 37 37
28 28 29 29 29 29 30 31 32 33 33 33 33 33 32 32 32 33 33 34 34 34 35 35 35 36 36 37 36 36 36 35 36 36 36 36 36 36 36 36 36 37 37
27 28 28 29 29 29 30 31 31 32 32 33 33 33 33 33 34 34 34 34 35 35 36 36 36 37 37 37 36 36 35 36 36 36 36 36 36 36 36 36 36 37 38

GEFSMW_500_meanwind_240.txt.gz
Wind_Speed
43 42 41 41 40 39 38 38 37 37 37 37 38 38 38 38 39 38 37 38 38 38 38 38 38 38 37 37 37 38 39 40 40 40 40 40 40 39 39 39 39 38 38
44 43 42 41 40 39 39 38 38 38 37 37 38 38 38 38 38 37 37 38 38 39 39 39 38 38 38 38 38 39 40 40 40 41 41 41 41 41 41 40 40 40 40
44 44 42 41 40 40 39 39 38 38 38 38 38 38 38 38 38 37 37 37 38 38 39 38 39 39 39 39 39 40 40 40 41 42 42 42 42 42 42 41 41 42 41
44 44 43 42 41 40 40 40 39 38 38 37 38 38 38 38 37 37 37 37 37 38 38 38 39 39 39 40 40 41 41 41 41 42 43 43 43 43 43 43 43 43 43
41 42 43 42 41 40 40 40 39 38 37 37 38 38 38 38 38 38 38 37 37 37 38 38 38 38 38 39 40 40 41 42 43 43 44 44 45 44 44 44 44 44 45
40 40 41 42 41 40 40 40 39 38 38 38 38 38 38 38 38 37 38 37 37 37 38 38 38 38 38 38 39 40 41 42 43 44 45 46 46 45 46 46 46 46 46
38 40 40 41 41 41 41 40 40 39 39 38 38 38 38 38 38 37 38 38 38 37 38 38 38 38 39 39 39 39 40 42 43 44 46 47 47 47 47 48 48 47 47
37 38 39 40 41 41 41 41 40 40 39 39 39 39 39 39 38 38 38 39 39 38 39 39 39 39 40 40 40 40 41 42 43 44 45 46 48 48 48 48 49 49 49
36 37 38 38 39 40 41 41 40 40 40 40 40 39 39 40 39 39 39 39 39 39 40 40 40 40 40 41 41 41 41 42 44 44 45 46 47 49 49 49 50 51 51
37 37 37 37 38 39 40 40 40 41 41 41 41 40 40 40 40 40 39 39 39 39 39 40 40 41 41 41 41 41 42 43 43 44 45 45 46 47 48 49 50 50 51
36 37 37 37 38 38 39 40 40 40 41 40 41 41 41 41 41 40 40 40 40 40 40 40 41 41 41 41 41 40 41 42 42 43 43 44 45 46 47 48 49 49 50
36 37 37 37 38 37 38 39 39 40 40 39 40 41 41 41 41 40 39 40 40 39 39 39 40 40 40 39 39 39 39 39 40 41 42 43 44 45 47 48 49 50 50
35 36 38 37 37 37 37 38 38 38 39 39 39 39 39 39 39 39 39 38 39 39 39 39 39 39 39 39 38 38 38 38 39 40 42 42 44 45 46 47 49 49 50
33 34 36 36 36 36 37 38 38 39 39 39 39 39 39 39 39 39 39 38 39 39 39 39 39 39 39 39 39 39 38 39 39 40 41 42 43 44 45 47 48 48 49
33 33 34 36 36 37 37 38 38 39 38 38 38 39 39 39 39 38 38 38 38 38 39 38 38 38 39 39 39 39 39 39 39 40 41 41 43 44 45 45 45 46 46
32 32 32 34 35 36 36 37 37 37 37 37 37 37 37 37 37 37 37 37 37 37 38 38 37 38 38 38 38 39 39 39 39 40 41 42 42 43 43 42 43 43 44
31 31 32 33 34 34 34 35 36 35 36 36 37 36 36 36 37 36 36 36 36 36 37 36 37 37 38 38 38 38 39 39 40 40 40 40 41 42 41 41 42 42 43
31 31 31 31 32 33 34 34 35 35 35 36 36 37 36 36 37 36 36 36 36 36 36 36 36 37 37 38 38 38 37 38 38 39 40 40 40 41 41 41 41 41 42
31 31 31 31 31 32 32 32 32 33 35 35 35 36 36 36 36 36 36 36 36 36 36 37 37 37 37 38 38 37 37 37 38 38 39 40 40 40 40 41 41 41 41
31 32 32 32 32 32 32 32 33 33 33 34 34 35 36 36 36 36 36 36 36 36 36 36 36 36 36 37 37 37 37 37 38 38 39 39 39 40 40 40 40 41 40
30 30 31 31 32 33 33 32 33 33 33 33 34 34 34 35 36 36 35 35 35 36 35 36 36 36 36 36 36 36 36 37 38 38 38 38 38 39 39 39 39 39 40
28 28 29 29 30 32 32 32 32 32 33 33 33 32 32 33 35 35 35 35 35 35 35 35 36 36 36 36 36 36 37 37 37 37 37 38 38 38 38 39 39 40 40
27 27 28 29 29 30 30 31 31 31 31 32 32 33 33 33 34 34 34 34 34 35 35 35 35 35 35 35 35 36 37 36 36 36 36 37 37 37 38 39 39 40 40
28 28 27 27 28 29 29 29 30 30 30 31 31 32 32 33 33 32 32 32 33 33 34 34 34 34 35 35 35 35 35 35 35 35 35 36 36 37 38 38 38 38 38
26 27 26 26 26 27 27 28 29 29 29 29 30 31 32 32 32 32 32 32 32 31 32 32 32 33 33 34 34 34 35 35 35 36 35 36 36 37 37 37 37 37 36
25 25 26 26 26 26 26 26 27 27 28 29 29 30 30 30 31 30 30 30 30 30 31 31 32 32 33 33 34 35 35 36 36 36 36 37 37 37 37 36 36 36 36

GEFSMW_500_meanwind_246.txt.gz
Wind_Speed
41 42 42 42 42 43 43 42 42 42 41 41 41 40 40 40 39 39 39 38 38 38 38 37 37 37 37 37 37 36 36 36 37 37 37 38 38 37 37 37 37 37 37
42 43 43 43 43 43 43 43 42 42 42 42 42 41 41 41 40 40 39 39 38 38 38 39 38 37 38 38 38 37 38 37 37 37 38 38 38 38 38 38 38 39 38
43 43 44 43 43 44 44 44 43 42 42 42 42 42 42 41 40 40 40 39 39 38 38 39 38 37 37 37 38 38 38 38 38 38 39 39 38 38 39 39 40 40 40
43 43 43 43 44 44 44 44 44 43 43 43 42 42 42 41 41 41 40 40 39 38 38 39 39 39 39 38 38 38 38 38 39 39 40 40 40 39 39 40 40 41 41
43 44 44 44 44 44 44 44 45 44 43 43 42 42 42 42 42 42 41 40 39 38 38 38 39 38 38 38 38 38 38 38 39 39 40 40 41 41 41 40 41 41 42
42 43 44 44 44 45 45 44 45 45 44 43 43 42 42 42 42 42 42 41 40 38 37 38 38 37 37 38 38 38 39 38 38 38 39 40 41 41 41 41 41 42 42
43 43 43 43 43 43 44 44 45 45 44 44 44 43 43 43 42 42 41 41 40 40 38 38 38 38 38 38 38 38 39 39 39 39 39 40 41 41 41 41 41 42 42
42 43 43 43 43 43 44 44 44 45 44 44 44 44 42 42 41 41 41 41 40 40 40 39 38 38 38 39 39 39 39 39 40 39 39 40 40 40 41 41 42 43 43
42 42 43 43 42 43 44 44 44 44 44 44 45 44 43 41 41 41 41 41 40 40 40 40 40 40 39 39 39 39 39 39 39 39 39 39 40 41 42 43 43 44 44
42 42 42 42 42 43 43 43 43 43 43 44 44 44 44 41 41 42 41 41 41 40 40 39 40 40 41 40 40 40 39 39 39 39 40 40 40 41 42 43 44 44 44
42 41 40 41 41 42 42 42 42 42 43 43 43 43 43 42 41 41 42 42 41 40 39 40 40 40 40 41 40 40 40 40 40 40 41 41 41 41 42 43 44 44 45
40 40 40 40 41 42 42 41 41 42 43 43 43 43 43 42 41 41 42 42 42 41 41 41 41 40 41 41 41 41 42 41 41 41 41 41 42 42 42 43 43 44 45
39 39 39 39 40 41 41 41 41 42 42 42 42 42 43 42 41 42 42 42 43 42 41 41 41 42 41 41 41 41 42 42 42 42 42 42 42 43 43 44 45 45 45
36 37 38 38 39 39 40 40 41 41 42 43 42 42 42 42 42 42 42 42 43 42 42 42 42 42 42 42 42 42 42 42 41 41 42 42 43 43 43 44 45 45 46
35 36 36 36 37 37 38 39 41 41 42 43 43 43 43 43 42 42 42 42 42 42 42 41 42 42 42 42 42 41 41 41 41 42 42 43 43 44 43 44 44 45 46
34 35 35 36 36 37 37 38 39 40 40 42 43 44 43 43 43 43 43 43 42 42 41 41 40 40 40 40 41 41 41 42 42 42 43 43 43 43 43 44 44 45 45
33 34 34 35 35 36 37 37 38 38 39 39 41 42 43 43 43 44 43 43 42 40 40 40 39 39 39 40 40 41 41 41 42 42 42 42 42 42 42 43 44 44 45
30 31 32 32 33 35 36 37 37 37 37 37 39 40 41 41 42 43 42 42 42 41 40 40 40 40 40 40 40 40 40 41 41 41 41 41 42 42 43 43 43 44 44
27 28 30 30 30 31 32 34 35 35 36 36 37 38 39 39 39 40 40 40 40 40 40 40 40 40 40 40 40 40 40 40 40 40 41 41 41 42 42 42 43 42 42
26 27 28 28 29 29 31 32 33 33 34 35 36 36 37 37 38 38 38 39 39 40 40 39 39 39 40 40 40 40 40 40 40 41 41 41 41 40 40 41 41 40 40
26 27 27 27 27 28 29 29 30 30 31 32 33 34 35 36 36 37 37 37 38 38 39 39 39 39 39 39 39 39 39 39 39 39 40 40 39 39 39 40 40 40 40
25 26 27 27 27 27 27 28 29 29 29 30 30 31 33 35 36 36 36 36 36 37 38 38 38 38 37 38 38 38 39 39 38 38 38 38 38 38 39 40 40 40 39
25 26 27 27 27 27 27 28 28 29 29 29 30 30 31 32 34 35 36 36 36 36 37 38 39 39 38 38 38 38 38 38 38 38 38 38 38 39 39 39 39 38 37
24 24 25 27 27 28 28 28 28 28 28 29 29 29 30 31 32 33 33 34 34 35 35 35 36 37 37 38 37 37 37 38 37 37 37 37 37 37 37 37 37 37 36
24 25 25 26 27 29 29 29 29 29 29 29 29 29 29 29 30 30 31 32 33 33 33 34 34 35 35 35 35 35 35 35 34 34 35 35 36 36 36 36 36 35 35
24 25 25 26 27 28 28 29 30 30 30 29 28 28 28 28 29 29 30 30 30 31 32 32 33 33 33 33 33 33 33 34 34 34 35 35 36 35 35 36 36 35 35